Wetterdaten: Donnerstag, 07.03.2019
Datum Zeit Temp. Aussen Temp. o. S. +5cm Feuchte Auss Luftdruck Regen Sonnenschein Regendauer Solar Windben Empfang
07.03.2019 00:00 10,1 C 8,9 C 8,3 C 91 % 991,3 hPa 0,0 l/m 0 min 0 min 0 W/m 25,7 km/h (4 Bft) 95,74 %
07.03.2019 00:02 10,1 C 8,9 C 8,3 C 91 % 991,2 hPa 0,0 l/m 0 min 0 min 0 W/m 19,3 km/h (3 Bft) 97,30 %
07.03.2019 00:04 10,2 C 8,9 C 8,3 C 91 % 991,2 hPa 0,0 l/m 0 min 2 min 0 W/m 12,9 km/h (3 Bft) 91,49 %
07.03.2019 00:07 10,2 C 8,9 C 8,3 C 91 % 991,2 hPa 0,0 l/m 0 min 3 min 0 W/m 12,9 km/h (3 Bft) 94,52 %
07.03.2019 00:08 10,2 C 8,9 C 8,3 C 91 % 991,2 hPa 0,0 l/m 0 min 1 min 0 W/m 29,0 km/h (5 Bft) 86,96 %
07.03.2019 00:10 10,2 C 8,9 C 8,3 C 91 % 991,2 hPa 0,0 l/m 0 min 2 min 0 W/m 19,3 km/h (3 Bft) 95,74 %
07.03.2019 00:12 10,2 C 8,9 C 8,3 C 91 % 991,2 hPa 0,0 l/m 0 min 2 min 0 W/m 9,7 km/h (2 Bft) 95,74 %
07.03.2019 00:14 10,2 C 8,9 C 8,3 C 91 % 991,1 hPa 0,0 l/m 0 min 2 min 0 W/m 9,7 km/h (2 Bft) 95,74 %
07.03.2019 00:16 10,2 C 8,9 C 8,3 C 91 % 991,1 hPa 0,0 l/m 0 min 2 min 0 W/m 12,9 km/h (3 Bft) 95,74 %
07.03.2019 00:18 10,2 C 8,9 C 8,3 C 91 % 991,0 hPa 0,0 l/m 0 min 2 min 0 W/m 16,1 km/h (3 Bft) 95,74 %
07.03.2019 00:20 10,2 C 8,9 C 8,3 C 91 % 991,0 hPa 0,0 l/m 0 min 2 min 0 W/m 12,9 km/h (3 Bft) 95,65 %
07.03.2019 00:22 10,2 C 8,9 C 8,9 C 91 % 991,0 hPa 0,0 l/m 0 min 2 min 0 W/m 12,9 km/h (3 Bft) 93,62 %
07.03.2019 00:24 10,2 C 8,9 C 8,9 C 91 % 991,0 hPa 0,0 l/m 0 min 2 min 0 W/m 16,1 km/h (3 Bft) 95,74 %
07.03.2019 00:26 10,3 C 8,9 C 8,9 C 91 % 991,0 hPa 0,0 l/m 0 min 2 min 0 W/m 16,1 km/h (3 Bft) 95,74 %
07.03.2019 00:28 10,3 C 8,9 C 8,9 C 91 % 990,9 hPa 0,0 l/m 0 min 2 min 0 W/m 12,9 km/h (3 Bft) 93,62 %
07.03.2019 00:30 10,3 C 8,9 C 8,9 C 91 % 990,9 hPa 0,0 l/m 0 min 2 min 0 W/m 12,9 km/h (3 Bft) 95,65 %
07.03.2019 00:32 10,3 C 8,9 C 8,3 C 91 % 990,9 hPa 0,0 l/m 0 min 2 min 0 W/m 12,9 km/h (3 Bft) 93,62 %
07.03.2019 00:34 10,3 C 8,9 C 8,3 C 91 % 990,8 hPa 0,0 l/m 0 min 2 min 0 W/m 16,1 km/h (3 Bft) 95,74 %
07.03.2019 00:36 10,4 C 8,9 C 8,3 C 91 % 990,8 hPa 0,0 l/m 0 min 2 min 0 W/m 16,1 km/h (3 Bft) 95,74 %
07.03.2019 00:38 10,4 C 8,9 C 8,3 C 91 % 990,8 hPa 0,0 l/m 0 min 2 min 0 W/m 16,1 km/h (3 Bft) 97,87 %
07.03.2019 00:40 10,4 C 8,9 C 8,3 C 91 % 990,8 hPa 0,0 l/m 0 min 2 min 0 W/m 16,1 km/h (3 Bft) 97,87 %
07.03.2019 00:42 10,4 C 8,9 C 8,3 C 91 % 990,7 hPa 0,0 l/m 0 min 2 min 0 W/m 25,7 km/h (4 Bft) 97,83 %
07.03.2019 00:44 10,4 C 8,9 C 8,3 C 91 % 990,6 hPa 0,0 l/m 0 min 2 min 0 W/m 19,3 km/h (3 Bft) 95,74 %
07.03.2019 00:46 10,4 C 8,9 C 8,3 C 91 % 990,6 hPa 0,0 l/m 0 min 2 min 0 W/m 22,5 km/h (4 Bft) 97,87 %
07.03.2019 00:48 10,4 C 8,9 C 8,3 C 91 % 990,5 hPa 0,0 l/m 0 min 2 min 0 W/m 12,9 km/h (3 Bft) 100,00 %
07.03.2019 00:50 10,4 C 8,9 C 8,3 C 91 % 990,6 hPa 0,0 l/m 0 min 2 min 0 W/m 22,5 km/h (4 Bft) 97,87 %
07.03.2019 00:52 10,4 C 8,9 C 8,3 C 91 % 990,5 hPa 0,0 l/m 0 min 2 min 0 W/m 12,9 km/h (3 Bft) 93,62 %
07.03.2019 00:54 10,4 C 8,9 C 8,3 C 91 % 990,4 hPa 0,0 l/m 0 min 2 min 0 W/m 12,9 km/h (3 Bft) 97,83 %
07.03.2019 00:56 10,4 C 8,9 C 8,3 C 91 % 990,5 hPa 0,0 l/m 0 min 2 min 0 W/m 19,3 km/h (3 Bft) 97,87 %
07.03.2019 00:58 10,5 C 8,9 C 8,3 C 91 % 990,3 hPa 0,0 l/m 0 min 2 min 0 W/m 16,1 km/h (3 Bft) 100,00 %
07.03.2019 01:00 10,4 C 8,9 C 8,3 C 91 % 990,3 hPa 0,0 l/m 0 min 2 min 0 W/m 16,1 km/h (3 Bft) 95,74 %
07.03.2019 01:02 10,5 C 8,9 C 8,3 C 91 % 990,3 hPa 0,0 l/m 0 min 2 min 0 W/m 22,5 km/h (4 Bft) 97,87 %
07.03.2019 01:04 10,4 C 8,9 C 8,3 C 91 % 990,3 hPa 0,0 l/m 0 min 2 min 0 W/m 19,3 km/h (3 Bft) 97,87 %
07.03.2019 01:06 10,5 C 8,9 C 8,3 C 91 % 990,3 hPa 0,0 l/m 0 min 2 min 0 W/m 16,1 km/h (3 Bft) 97,83 %
07.03.2019 01:08 10,4 C 8,9 C 8,3 C 91 % 990,3 hPa 0,0 l/m 0 min 2 min 0 W/m 16,1 km/h (3 Bft) 97,87 %
07.03.2019 01:10 10,4 C 8,9 C 8,3 C 91 % 990,2 hPa 0,0 l/m 0 min 2 min 0 W/m 22,5 km/h (4 Bft) 95,74 %
07.03.2019 01:12 10,4 C 8,9 C 8,3 C 91 % 990,2 hPa 0,0 l/m 0 min 2 min 0 W/m 16,1 km/h (3 Bft) 97,87 %
07.03.2019 01:14 10,4 C 8,9 C 8,3 C 91 % 990,2 hPa 0,0 l/m 0 min 2 min 0 W/m 12,9 km/h (3 Bft) 97,87 %
07.03.2019 01:16 10,4 C 8,9 C 8,3 C 91 % 990,2 hPa 0,2 l/m 0 min 2 min 0 W/m 12,9 km/h (3 Bft) 97,87 %
07.03.2019 01:18 10,4 C 8,9 C 8,3 C 91 % 990,2 hPa 0,0 l/m 0 min 2 min 0 W/m 9,7 km/h (2 Bft) 97,83 %
07.03.2019 01:20 10,4 C 8,9 C 8,3 C 91 % 990,2 hPa 0,0 l/m 0 min 2 min 0 W/m 16,1 km/h (3 Bft) 97,87 %
07.03.2019 01:22 10,4 C 8,9 C 8,3 C 91 % 990,2 hPa 0,0 l/m 0 min 2 min 0 W/m 22,5 km/h (4 Bft) 97,87 %
07.03.2019 01:24 10,4 C 8,9 C 8,3 C 91 % 990,2 hPa 0,0 l/m 0 min 2 min 0 W/m 19,3 km/h (3 Bft) 97,87 %
07.03.2019 01:26 10,4 C 8,9 C 8,3 C 91 % 990,2 hPa 0,0 l/m 0 min 2 min 0 W/m 16,1 km/h (3 Bft) 97,87 %
07.03.2019 01:28 10,4 C 8,9 C 8,3 C 91 % 990,2 hPa 0,0 l/m 0 min 2 min 0 W/m 16,1 km/h (3 Bft) 97,87 %
07.03.2019 01:30 10,4 C 8,9 C 8,3 C 91 % 990,3 hPa 0,0 l/m 0 min 2 min 0 W/m 19,3 km/h (3 Bft) 97,83 %
07.03.2019 01:32 10,4 C 8,9 C 8,3 C 91 % 990,3 hPa 0,0 l/m 0 min 2 min 0 W/m 9,7 km/h (2 Bft) 97,87 %
07.03.2019 01:34 10,4 C 8,9 C 8,3 C 91 % 990,3 hPa 0,0 l/m 0 min 2 min 0 W/m 16,1 km/h (3 Bft) 97,87 %
07.03.2019 01:36 10,4 C 8,9 C 8,3 C 91 % 990,3 hPa 0,0 l/m 0 min 0 min 0 W/m 16,1 km/h (3 Bft) 97,87 %
07.03.2019 01:38 10,4 C 8,9 C 8,3 C 91 % 990,3 hPa 0,0 l/m 0 min 0 min 0 W/m 6,4 km/h (2 Bft) 97,87 %
07.03.2019 01:40 10,4 C 8,9 C 8,3 C 92 % 990,3 hPa 0,0 l/m 0 min 0 min 0 W/m 9,7 km/h (2 Bft) 97,87 %
07.03.2019 01:42 10,4 C 8,9 C 8,3 C 92 % 990,3 hPa 0,0 l/m 0 min 0 min 0 W/m 9,7 km/h (2 Bft) 97,83 %
07.03.2019 01:44 10,3 C 8,9 C 8,3 C 92 % 990,2 hPa 0,0 l/m 0 min 2 min 0 W/m 6,4 km/h (2 Bft) 97,87 %
07.03.2019 01:46 10,3 C 8,3 C 8,3 C 92 % 990,1 hPa 0,0 l/m 0 min 2 min 0 W/m 25,7 km/h (4 Bft) 97,87 %
07.03.2019 01:48 10,3 C 8,3 C 8,3 C 92 % 990,2 hPa 0,0 l/m 0 min 2 min 0 W/m 9,7 km/h (2 Bft) 97,87 %
07.03.2019 01:50 10,3 C 8,3 C 8,3 C 92 % 990,2 hPa 0,0 l/m 0 min 2 min 0 W/m 16,1 km/h (3 Bft) 97,87 %
07.03.2019 01:52 10,3 C 8,3 C 8,3 C 92 % 990,1 hPa 0,0 l/m 0 min 2 min 0 W/m 12,9 km/h (3 Bft) 100,00 %
07.03.2019 01:54 10,3 C 8,3 C 7,8 C 92 % 990,1 hPa 0,2 l/m 0 min 2 min 0 W/m 6,4 km/h (2 Bft) 100,00 %
07.03.2019 01:56 10,3 C 8,3 C 7,8 C 92 % 990,0 hPa 0,0 l/m 0 min 2 min 0 W/m 16,1 km/h (3 Bft) 100,00 %
07.03.2019 01:58 10,2 C 8,3 C 7,8 C 92 % 990,0 hPa 0,0 l/m 0 min 0 min 0 W/m 12,9 km/h (3 Bft) 95,74 %
07.03.2019 02:00 10,2 C 8,3 C 7,8 C 92 % 990,0 hPa 0,0 l/m 0 min 0 min 0 W/m 9,7 km/h (2 Bft) 100,00 %
07.03.2019 02:02 10,2 C 8,3 C 7,8 C 92 % 990,0 hPa 0,0 l/m 0 min 0 min 0 W/m 9,7 km/h (2 Bft) 100,00 %
07.03.2019 02:04 10,2 C 8,3 C 7,8 C 92 % 989,9 hPa 0,0 l/m 0 min 0 min 0 W/m 9,7 km/h (2 Bft) 100,00 %
07.03.2019 02:06 10,2 C 8,3 C 8,3 C 92 % 989,8 hPa 0,0 l/m 0 min 0 min 0 W/m 16,1 km/h (3 Bft) 100,00 %
07.03.2019 02:08 10,2 C 8,3 C 8,3 C 92 % 989,8 hPa 0,0 l/m 0 min 0 min 0 W/m 9,7 km/h (2 Bft) 95,74 %
07.03.2019 02:10 10,2 C 8,3 C 8,3 C 92 % 989,7 hPa 0,0 l/m 0 min 0 min 0 W/m 12,9 km/h (3 Bft) 100,00 %
07.03.2019 02:12 10,2 C 8,3 C 8,3 C 93 % 989,7 hPa 0,0 l/m 0 min 0 min 0 W/m 16,1 km/h (3 Bft) 100,00 %
07.03.2019 02:14 10,1 C 8,3 C 8,3 C 93 % 989,6 hPa 0,0 l/m 0 min 0 min 0 W/m 12,9 km/h (3 Bft) 100,00 %
07.03.2019 02:16 10,1 C 8,3 C 7,8 C 93 % 989,6 hPa 0,0 l/m 0 min 0 min 0 W/m 9,7 km/h (2 Bft) 100,00 %
07.03.2019 02:18 10,1 C 8,3 C 8,3 C 93 % 989,5 hPa 0,0 l/m 0 min 0 min 0 W/m 9,7 km/h (2 Bft) 100,00 %
07.03.2019 02:20 10,1 C 8,9 C 8,3 C 93 % 989,5 hPa 0,0 l/m 0 min 2 min 0 W/m 16,1 km/h (3 Bft) 100,00 %
07.03.2019 02:22 10,1 C 8,3 C 8,3 C 93 % 989,5 hPa 0,0 l/m 0 min 2 min 0 W/m 12,9 km/h (3 Bft) 97,87 %
07.03.2019 02:24 10,1 C 8,9 C 8,3 C 93 % 989,4 hPa 0,0 l/m 0 min 0 min 0 W/m 9,7 km/h (2 Bft) 100,00 %
07.03.2019 02:26 10,1 C 8,9 C 8,3 C 93 % 989,3 hPa 0,0 l/m 0 min 0 min 0 W/m 16,1 km/h (3 Bft) 100,00 %
07.03.2019 02:28 10,1 C 8,9 C 8,3 C 93 % 989,3 hPa 0,0 l/m 0 min 2 min 0 W/m 6,4 km/h (2 Bft) 97,83 %
07.03.2019 02:30 10,1 C 8,9 C 8,3 C 93 % 989,2 hPa 0,0 l/m 0 min 2 min 0 W/m 12,9 km/h (3 Bft) 97,87 %
07.03.2019 02:32 10,1 C 8,9 C 8,3 C 93 % 989,2 hPa 0,0 l/m 0 min 2 min 0 W/m 12,9 km/h (3 Bft) 97,87 %
07.03.2019 02:34 10,1 C 8,9 C 8,3 C 93 % 989,2 hPa 0,0 l/m 0 min 2 min 0 W/m 19,3 km/h (3 Bft) 95,74 %
07.03.2019 02:36 10,1 C 8,9 C 8,3 C 93 % 989,2 hPa 0,0 l/m 0 min 0 min 0 W/m 16,1 km/h (3 Bft) 95,74 %
07.03.2019 02:38 10,1 C 8,9 C 8,3 C 93 % 989,1 hPa 0,0 l/m 0 min 0 min 0 W/m 16,1 km/h (3 Bft) 95,74 %
07.03.2019 02:40 10,1 C 8,9 C 8,3 C 93 % 989,1 hPa 0,0 l/m 0 min 2 min 0 W/m 16,1 km/h (3 Bft) 97,83 %
07.03.2019 02:42 10,1 C 8,9 C 8,3 C 93 % 989,1 hPa 0,0 l/m 0 min 2 min 0 W/m 12,9 km/h (3 Bft) 95,74 %
07.03.2019 02:44 10,1 C 8,9 C 8,3 C 93 % 989,0 hPa 0,0 l/m 0 min 0 min 0 W/m 9,7 km/h (2 Bft) 97,87 %
07.03.2019 02:46 10,1 C 8,9 C 8,3 C 93 % 989,0 hPa 0,0 l/m 0 min 2 min 0 W/m 12,9 km/h (3 Bft) 95,74 %
07.03.2019 02:48 10,1 C 8,9 C 8,3 C 93 % 989,0 hPa 0,0 l/m 0 min 0 min 0 W/m 16,1 km/h (3 Bft) 91,49 %
07.03.2019 02:50 10,1 C 8,9 C 8,3 C 93 % 988,9 hPa 0,0 l/m 0 min 2 min 0 W/m 16,1 km/h (3 Bft) 95,74 %
07.03.2019 02:52 10,1 C 8,9 C 8,3 C 93 % 988,9 hPa 0,0 l/m 0 min 2 min 0 W/m 12,9 km/h (3 Bft) 95,65 %
07.03.2019 02:54 10,1 C 8,9 C 8,3 C 93 % 988,8 hPa 0,0 l/m 0 min 0 min 0 W/m 12,9 km/h (3 Bft) 95,74 %
07.03.2019 02:56 10,1 C 8,9 C 8,3 C 93 % 988,7 hPa 0,0 l/m 0 min 2 min 0 W/m 25,7 km/h (4 Bft) 93,62 %
07.03.2019 02:58 10,1 C 8,9 C 8,3 C 93 % 988,7 hPa 0,0 l/m 0 min 2 min 0 W/m 12,9 km/h (3 Bft) 93,62 %
07.03.2019 03:00 10,1 C 8,9 C 8,3 C 93 % 988,7 hPa 0,0 l/m 0 min 2 min 0 W/m 12,9 km/h (3 Bft) 95,74 %
07.03.2019 03:02 10,1 C 8,3 C 8,3 C 93 % 988,6 hPa 0,0 l/m 0 min 2 min 0 W/m 25,7 km/h (4 Bft) 95,65 %
07.03.2019 03:04 10,1 C 8,3 C 8,3 C 93 % 988,5 hPa 0,0 l/m 0 min 2 min 0 W/m 29,0 km/h (5 Bft) 95,74 %
07.03.2019 03:06 10,1 C 8,3 C 8,3 C 93 % 988,5 hPa 0,0 l/m 0 min 2 min 0 W/m 22,5 km/h (4 Bft) 95,74 %
07.03.2019 03:08 10,1 C 8,3 C 8,3 C 93 % 988,5 hPa 0,0 l/m 0 min 2 min 0 W/m 12,9 km/h (3 Bft) 95,74 %
07.03.2019 03:10 10,1 C 8,3 C 8,3 C 93 % 988,5 hPa 0,0 l/m 0 min 2 min 0 W/m 6,4 km/h (2 Bft) 95,74 %
07.03.2019 03:12 10,1 C 8,3 C 8,3 C 94 % 988,4 hPa 0,0 l/m 0 min 2 min 0 W/m 19,3 km/h (3 Bft) 95,74 %
07.03.2019 03:14 10,1 C 8,9 C 8,3 C 93 % 988,4 hPa 0,0 l/m 0 min 2 min 0 W/m 12,9 km/h (3 Bft) 97,83 %
07.03.2019 03:16 10,1 C 8,9 C 8,3 C 93 % 988,3 hPa 0,0 l/m 0 min 0 min 0 W/m 25,7 km/h (4 Bft) 95,74 %
07.03.2019 03:18 10,1 C 8,9 C 8,3 C 93 % 988,3 hPa 0,0 l/m 0 min 2 min 0 W/m 22,5 km/h (4 Bft) 97,87 %
07.03.2019 03:20 10,1 C 8,9 C 8,3 C 93 % 988,3 hPa 0,0 l/m 0 min 0 min 0 W/m 19,3 km/h (3 Bft) 95,74 %
07.03.2019 03:22 10,1 C 8,9 C 8,3 C 93 % 988,3 hPa 0,0 l/m 0 min 2 min 0 W/m 22,5 km/h (4 Bft) 97,87 %
07.03.2019 03:24 10,1 C 8,9 C 8,3 C 93 % 988,2 hPa 0,0 l/m 0 min 2 min 0 W/m 16,1 km/h (3 Bft) 97,87 %
07.03.2019 03:26 10,1 C 8,9 C 8,3 C 93 % 988,3 hPa 0,0 l/m 0 min 2 min 0 W/m 32,2 km/h (5 Bft) 95,65 %
07.03.2019 03:28 10,1 C 8,9 C 8,3 C 93 % 988,2 hPa 0,0 l/m 0 min 2 min 0 W/m 22,5 km/h (4 Bft) 97,83 %
07.03.2019 03:30 10,1 C 8,9 C 8,3 C 93 % 988,2 hPa 0,0 l/m 0 min 2 min 0 W/m 22,5 km/h (4 Bft) 97,87 %
07.03.2019 03:32 10,1 C 8,9 C 8,3 C 93 % 988,1 hPa 0,0 l/m 0 min 2 min 0 W/m 12,9 km/h (3 Bft) 97,87 %
07.03.2019 03:34 10,1 C 8,9 C 8,3 C 93 % 988,0 hPa 0,0 l/m 0 min 2 min 0 W/m 22,5 km/h (4 Bft) 97,87 %
07.03.2019 03:36 10,1 C 8,9 C 8,3 C 93 % 987,9 hPa 0,0 l/m 0 min 0 min 0 W/m 12,9 km/h (3 Bft) 97,87 %
07.03.2019 03:38 10,1 C 8,9 C 8,3 C 93 % 987,8 hPa 0,0 l/m 0 min 2 min 0 W/m 22,5 km/h (4 Bft) 100,00 %
07.03.2019 03:40 10,1 C 8,9 C 8,3 C 93 % 987,7 hPa 0,0 l/m 0 min 2 min 0 W/m 32,2 km/h (5 Bft) 95,74 %
07.03.2019 03:42 10,1 C 8,9 C 8,3 C 93 % 987,8 hPa 0,0 l/m 0 min 0 min 0 W/m 16,1 km/h (3 Bft) 97,87 %
07.03.2019 03:44 10,1 C 8,9 C 8,3 C 93 % 987,7 hPa 0,0 l/m 0 min 0 min 0 W/m 16,1 km/h (3 Bft) 100,00 %
07.03.2019 03:46 10,1 C 8,9 C 8,3 C 93 % 987,7 hPa 0,0 l/m 0 min 0 min 0 W/m 16,1 km/h (3 Bft) 100,00 %
07.03.2019 03:48 10,1 C 8,9 C 8,3 C 93 % 987,7 hPa 0,0 l/m 0 min 0 min 0 W/m 25,7 km/h (4 Bft) 97,87 %
07.03.2019 03:50 10,1 C 8,9 C 8,3 C 93 % 987,6 hPa 0,0 l/m 0 min 0 min 0 W/m 19,3 km/h (3 Bft) 100,00 %
07.03.2019 03:52 10,1 C 8,9 C 8,3 C 93 % 987,5 hPa 0,0 l/m 0 min 0 min 0 W/m 16,1 km/h (3 Bft) 100,00 %
07.03.2019 03:54 10,1 C 8,9 C 8,3 C 93 % 987,5 hPa 0,0 l/m 0 min 0 min 0 W/m 19,3 km/h (3 Bft) 100,00 %
07.03.2019 03:56 10,1 C 8,9 C 8,3 C 93 % 987,5 hPa 0,0 l/m 0 min 0 min 0 W/m 16,1 km/h (3 Bft) 100,00 %
07.03.2019 03:58 10,1 C 8,9 C 8,3 C 93 % 987,4 hPa 0,0 l/m 0 min 0 min 0 W/m 9,7 km/h (2 Bft) 100,00 %
07.03.2019 04:00 10,1 C 8,9 C 8,3 C 93 % 987,3 hPa 0,0 l/m 0 min 0 min 0 W/m 16,1 km/h (3 Bft) 100,00 %
07.03.2019 04:02 10,1 C 8,9 C 8,3 C 93 % 987,3 hPa 0,0 l/m 0 min 0 min 0 W/m 12,9 km/h (3 Bft) 86,67 %
07.03.2019 04:04 10,1 C 8,9 C 8,3 C 93 % 987,1 hPa 0,0 l/m 0 min 0 min 0 W/m 12,9 km/h (3 Bft) 100,00 %
07.03.2019 04:06 10,1 C 8,9 C 8,3 C 93 % 987,1 hPa 0,0 l/m 0 min 0 min 0 W/m 19,3 km/h (3 Bft) 97,87 %
07.03.2019 04:08 10,1 C 8,9 C 8,3 C 93 % 987,1 hPa 0,0 l/m 0 min 0 min 0 W/m 29,0 km/h (5 Bft) 97,87 %
07.03.2019 04:10 10,1 C 8,9 C 8,3 C 93 % 987,2 hPa 0,0 l/m 0 min 0 min 0 W/m 22,5 km/h (4 Bft) 100,00 %
07.03.2019 04:12 10,1 C 8,9 C 8,3 C 93 % 987,2 hPa 0,0 l/m 0 min 2 min 0 W/m 19,3 km/h (3 Bft) 97,87 %
07.03.2019 04:14 10,1 C 8,9 C 8,3 C 93 % 987,0 hPa 0,0 l/m 0 min 0 min 0 W/m 22,5 km/h (4 Bft) 97,83 %
07.03.2019 04:16 10,1 C 8,9 C 8,3 C 93 % 987,0 hPa 0,0 l/m 0 min 0 min 0 W/m 35,4 km/h (5 Bft) 97,87 %
07.03.2019 04:18 10,1 C 8,9 C 8,3 C 93 % 987,0 hPa 0,2 l/m 0 min 0 min 0 W/m 19,3 km/h (3 Bft) 97,87 %
07.03.2019 04:20 10,1 C 8,9 C 8,3 C 93 % 986,8 hPa 0,0 l/m 0 min 0 min 0 W/m 25,7 km/h (4 Bft) 97,87 %
07.03.2019 04:22 10,1 C 8,9 C 8,3 C 93 % 986,8 hPa 0,0 l/m 0 min 0 min 0 W/m 16,1 km/h (3 Bft) 97,87 %
07.03.2019 04:24 10,1 C 8,9 C 8,3 C 93 % 986,8 hPa 0,0 l/m 0 min 2 min 0 W/m 22,5 km/h (4 Bft) 97,83 %
07.03.2019 04:26 10,2 C 8,9 C 8,3 C 93 % 986,8 hPa 0,0 l/m 0 min 0 min 0 W/m 29,0 km/h (5 Bft) 97,87 %
07.03.2019 04:28 10,2 C 8,9 C 8,3 C 93 % 986,8 hPa 0,0 l/m 0 min 2 min 0 W/m 29,0 km/h (5 Bft) 97,87 %
07.03.2019 04:30 10,2 C 8,9 C 8,9 C 93 % 986,7 hPa 0,0 l/m 0 min 2 min 0 W/m 35,4 km/h (5 Bft) 97,87 %
07.03.2019 04:32 10,2 C 8,9 C 8,3 C 93 % 986,5 hPa 0,0 l/m 0 min 2 min 0 W/m 32,2 km/h (5 Bft) 97,87 %
07.03.2019 04:34 10,3 C 8,9 C 8,3 C 93 % 986,4 hPa 0,0 l/m 0 min 2 min 0 W/m 35,4 km/h (5 Bft) 97,87 %
07.03.2019 04:36 10,3 C 8,9 C 8,3 C 93 % 986,3 hPa 0,0 l/m 0 min 0 min 0 W/m 16,1 km/h (3 Bft) 97,83 %
07.03.2019 04:38 10,3 C 8,9 C 8,3 C 92 % 986,1 hPa 0,0 l/m 0 min 0 min 0 W/m 16,1 km/h (3 Bft) 95,74 %
07.03.2019 04:40 10,3 C 8,9 C 8,3 C 92 % 986,1 hPa 0,0 l/m 0 min 0 min 0 W/m 32,2 km/h (5 Bft) 97,87 %
07.03.2019 04:42 10,3 C 8,9 C 8,3 C 93 % 986,1 hPa 0,0 l/m 0 min 0 min 0 W/m 19,3 km/h (3 Bft) 97,87 %
07.03.2019 04:44 10,3 C 8,9 C 8,3 C 92 % 986,1 hPa 0,0 l/m 0 min 2 min 0 W/m 25,7 km/h (4 Bft) 100,00 %
07.03.2019 04:46 10,3 C 9,4 C 8,3 C 92 % 986,0 hPa 0,0 l/m 0 min 2 min 0 W/m 32,2 km/h (5 Bft) 97,87 %
07.03.2019 04:48 10,4 C 9,4 C 8,9 C 92 % 985,9 hPa 0,0 l/m 0 min 0 min 0 W/m 35,4 km/h (5 Bft) 97,83 %
07.03.2019 04:50 10,4 C 9,4 C 8,9 C 92 % 985,8 hPa 0,0 l/m 0 min 0 min 0 W/m 35,4 km/h (5 Bft) 97,87 %
07.03.2019 04:52 10,4 C 9,4 C 8,9 C 92 % 985,9 hPa 0,0 l/m 0 min 0 min 0 W/m 32,2 km/h (5 Bft) 97,87 %
07.03.2019 04:54 10,4 C 9,4 C 8,9 C 92 % 985,8 hPa 0,0 l/m 0 min 0 min 0 W/m 25,7 km/h (4 Bft) 97,87 %
07.03.2019 04:56 10,4 C 9,4 C 8,9 C 92 % 985,7 hPa 0,0 l/m 0 min 0 min 0 W/m 29,0 km/h (5 Bft) 97,87 %
07.03.2019 04:58 10,5 C 9,4 C 8,9 C 92 % 985,8 hPa 0,0 l/m 0 min 0 min 0 W/m 25,7 km/h (4 Bft) 95,74 %
07.03.2019 05:00 10,5 C 9,4 C 8,9 C 92 % 985,7 hPa 0,0 l/m 0 min 0 min 0 W/m 12,9 km/h (3 Bft) 97,83 %
07.03.2019 05:02 10,5 C 9,4 C 8,9 C 92 % 985,6 hPa 0,0 l/m 0 min 0 min 0 W/m 25,7 km/h (4 Bft) 95,74 %
07.03.2019 05:04 10,5 C 9,4 C 8,9 C 92 % 985,5 hPa 0,0 l/m 0 min 0 min 0 W/m 25,7 km/h (4 Bft) 95,74 %
07.03.2019 05:05 10,5 C 9,4 C 8,9 C 92 % 985,4 hPa 0,0 l/m 0 min 0 min 0 W/m 29,0 km/h (5 Bft) 98,25 %
07.03.2019 05:10 10,6 C 9,4 C 8,9 C 91 % 985,5 hPa 0,0 l/m 0 min 0 min 0 W/m 29,0 km/h (5 Bft) 98,25 %
07.03.2019 05:15 10,6 C 9,4 C 8,9 C 91 % 985,3 hPa 0,0 l/m 0 min 0 min 0 W/m 25,7 km/h (4 Bft) 97,87 %
07.03.2019 05:16 10,6 C 9,4 C 8,9 C 91 % 985,3 hPa 0,0 l/m 0 min 0 min 0 W/m 12,9 km/h (3 Bft) 100,00 %
07.03.2019 05:18 10,6 C 9,4 C 8,9 C 91 % 985,2 hPa 0,0 l/m 0 min 0 min 0 W/m 22,5 km/h (4 Bft) 95,83 %
07.03.2019 05:20 10,5 C 9,4 C 8,9 C 91 % 985,2 hPa 0,0 l/m 0 min 0 min 0 W/m 32,2 km/h (5 Bft) 97,87 %
07.03.2019 05:22 10,5 C 9,4 C 8,9 C 91 % 985,2 hPa 0,0 l/m 0 min 0 min 0 W/m 16,1 km/h (3 Bft) 97,87 %
07.03.2019 05:24 10,5 C 9,4 C 8,9 C 91 % 985,1 hPa 0,0 l/m 0 min 0 min 0 W/m 29,0 km/h (5 Bft) 93,62 %
07.03.2019 05:26 10,5 C 9,4 C 8,3 C 91 % 984,9 hPa 0,0 l/m 0 min 0 min 0 W/m 12,9 km/h (3 Bft) 97,87 %
07.03.2019 05:28 10,5 C 9,4 C 8,9 C 91 % 985,0 hPa 0,0 l/m 0 min 0 min 0 W/m 19,3 km/h (3 Bft) 97,87 %
07.03.2019 05:30 10,5 C 9,4 C 8,9 C 91 % 985,1 hPa 0,0 l/m 0 min 0 min 0 W/m 25,7 km/h (4 Bft) 95,24 %
07.03.2019 05:32 10,5 C 9,4 C 8,9 C 91 % 985,1 hPa 0,0 l/m 0 min 0 min 0 W/m 29,0 km/h (5 Bft) 96,00 %
07.03.2019 05:34 10,5 C 9,4 C 8,9 C 91 % 985,1 hPa 0,0 l/m 0 min 0 min 0 W/m 32,2 km/h (5 Bft) 93,88 %
07.03.2019 05:36 10,5 C 10,0 C 8,9 C 91 % 985,0 hPa 0,0 l/m 0 min 0 min 0 W/m 16,1 km/h (3 Bft) 95,65 %
07.03.2019 05:38 10,5 C 10,0 C 8,9 C 91 % 985,0 hPa 0,0 l/m 0 min 0 min 0 W/m 25,7 km/h (4 Bft) 95,74 %
07.03.2019 05:40 10,5 C 10,0 C 8,9 C 91 % 985,0 hPa 0,0 l/m 0 min 0 min 0 W/m 22,5 km/h (4 Bft) 95,74 %
07.03.2019 05:42 10,5 C 10,0 C 8,9 C 91 % 985,0 hPa 0,0 l/m 0 min 0 min 0 W/m 25,7 km/h (4 Bft) 95,74 %
07.03.2019 05:44 10,5 C 10,0 C 9,4 C 91 % 984,9 hPa 0,0 l/m 0 min 0 min 0 W/m 22,5 km/h (4 Bft) 97,62 %
07.03.2019 05:46 10,5 C 10,0 C 8,9 C 91 % 984,9 hPa 0,0 l/m 0 min 0 min 0 W/m 12,9 km/h (3 Bft) 97,96 %
07.03.2019 05:48 10,5 C 10,0 C 9,4 C 91 % 985,0 hPa 0,0 l/m 0 min 0 min 0 W/m 38,6 km/h (5 Bft) 97,87 %
07.03.2019 05:50 10,6 C 10,0 C 9,4 C 91 % 985,0 hPa 0,0 l/m 0 min 0 min 0 W/m 45,1 km/h (6 Bft) 95,74 %
07.03.2019 05:52 10,6 C 10,6 C 9,4 C 91 % 985,0 hPa 0,0 l/m 0 min 0 min 0 W/m 35,4 km/h (5 Bft) 97,83 %
07.03.2019 05:54 10,6 C 10,6 C 9,4 C 91 % 985,0 hPa 0,0 l/m 0 min 0 min 0 W/m 35,4 km/h (5 Bft) 97,87 %
07.03.2019 05:56 10,7 C 10,6 C 9,4 C 91 % 985,0 hPa 0,0 l/m 0 min 0 min 0 W/m 29,0 km/h (5 Bft) 97,87 %
07.03.2019 05:58 10,7 C 10,6 C 9,4 C 90 % 985,0 hPa 0,0 l/m 0 min 0 min 0 W/m 25,7 km/h (4 Bft) 95,74 %
07.03.2019 06:00 10,7 C 10,6 C 9,4 C 90 % 985,1 hPa 0,0 l/m 0 min 0 min 0 W/m 29,0 km/h (5 Bft) 97,87 %
07.03.2019 06:02 10,8 C 10,6 C 10,0 C 90 % 985,1 hPa 0,0 l/m 0 min 0 min 0 W/m 25,7 km/h (4 Bft) 97,87 %
07.03.2019 06:04 10,8 C 10,6 C 9,4 C 90 % 985,2 hPa 0,0 l/m 0 min 2 min 0 W/m 29,0 km/h (5 Bft) 97,83 %
07.03.2019 06:08 10,9 C 10,0 C 9,4 C 90 % 985,5 hPa 0,0 l/m 0 min 4 min 0 W/m 45,1 km/h (6 Bft) 96,81 %
07.03.2019 06:10 10,9 C 8,9 C 8,9 C 90 % 985,4 hPa 0,2 l/m 0 min 2 min 0 W/m 29,0 km/h (5 Bft) 97,87 %
07.03.2019 06:12 10,9 C 8,9 C 8,3 C 90 % 985,6 hPa 0,0 l/m 0 min 2 min 0 W/m 41,8 km/h (6 Bft) 97,87 %
07.03.2019 06:14 10,9 C 8,9 C 8,3 C 90 % 985,6 hPa 0,0 l/m 0 min 2 min 0 W/m 51,5 km/h (7 Bft) 97,83 %
07.03.2019 06:16 10,9 C 8,9 C 8,3 C 90 % 985,7 hPa 0,0 l/m 0 min 2 min 0 W/m 67,6 km/h (8 Bft) 97,87 %
07.03.2019 06:18 10,9 C 8,9 C 8,3 C 90 % 985,7 hPa 0,2 l/m 0 min 2 min 0 W/m 32,2 km/h (5 Bft) 95,74 %
07.03.2019 06:20 10,9 C 8,9 C 8,3 C 90 % 985,7 hPa 0,0 l/m 0 min 2 min 0 W/m 25,7 km/h (4 Bft) 95,74 %
07.03.2019 06:22 10,9 C 8,9 C 8,3 C 90 % 985,5 hPa 0,0 l/m 0 min 2 min 0 W/m 35,4 km/h (5 Bft) 97,87 %
07.03.2019 06:24 10,8 C 8,9 C 8,3 C 90 % 985,6 hPa 0,0 l/m 0 min 2 min 0 W/m 19,3 km/h (3 Bft) 97,87 %
07.03.2019 06:26 10,7 C 8,9 C 8,3 C 90 % 985,6 hPa 0,0 l/m 0 min 2 min 0 W/m 41,8 km/h (6 Bft) 97,83 %
07.03.2019 06:28 10,7 C 8,9 C 8,3 C 90 % 985,6 hPa 0,0 l/m 0 min 2 min 0 W/m 38,6 km/h (5 Bft) 97,87 %
07.03.2019 06:30 10,6 C 8,9 C 8,3 C 90 % 985,7 hPa 0,0 l/m 0 min 2 min 0 W/m 32,2 km/h (5 Bft) 95,74 %
07.03.2019 06:32 10,6 C 8,9 C 8,3 C 90 % 985,7 hPa 0,0 l/m 0 min 2 min 0 W/m 29,0 km/h (5 Bft) 95,74 %
07.03.2019 06:34 10,5 C 8,9 C 8,3 C 91 % 985,7 hPa 0,0 l/m 0 min 2 min 0 W/m 32,2 km/h (5 Bft) 97,87 %
07.03.2019 06:36 10,5 C 8,9 C 8,3 C 91 % 985,7 hPa 0,0 l/m 0 min 2 min 0 W/m 22,5 km/h (4 Bft) 95,74 %
07.03.2019 06:38 10,4 C 8,9 C 8,3 C 91 % 985,7 hPa 0,0 l/m 0 min 2 min 0 W/m 29,0 km/h (5 Bft) 100,00 %
07.03.2019 06:40 10,4 C 8,9 C 8,3 C 91 % 985,8 hPa 0,0 l/m 0 min 2 min 0 W/m 54,7 km/h (7 Bft) 97,87 %
07.03.2019 06:42 10,4 C 8,9 C 8,3 C 91 % 985,7 hPa 0,0 l/m 0 min 2 min 0 W/m 38,6 km/h (5 Bft) 97,87 %
07.03.2019 06:44 10,4 C 8,9 C 8,3 C 90 % 985,7 hPa 0,0 l/m 0 min 0 min 0 W/m 38,6 km/h (5 Bft) 100,00 %
07.03.2019 06:46 10,3 C 8,9 C 8,3 C 90 % 985,8 hPa 0,0 l/m 0 min 2 min 0 W/m 35,4 km/h (5 Bft) 100,00 %
07.03.2019 06:48 10,3 C 8,9 C 8,3 C 89 % 985,9 hPa 0,0 l/m 0 min 2 min 0 W/m 32,2 km/h (5 Bft) 100,00 %
07.03.2019 06:50 10,3 C 8,3 C 7,8 C 89 % 985,9 hPa 0,0 l/m 0 min 2 min 0 W/m 45,1 km/h (6 Bft) 97,83 %
07.03.2019 06:52 10,4 C 8,3 C 7,8 C 88 % 985,9 hPa 0,0 l/m 0 min 2 min 0 W/m 57,9 km/h (7 Bft) 100,00 %
07.03.2019 06:54 10,4 C 8,3 C 7,8 C 87 % 986,1 hPa 0,0 l/m 0 min 2 min 0 W/m 38,6 km/h (5 Bft) 100,00 %
07.03.2019 06:56 10,4 C 8,3 C 7,8 C 87 % 986,2 hPa 0,0 l/m 0 min 2 min 0 W/m 45,1 km/h (6 Bft) 100,00 %
07.03.2019 06:58 10,4 C 8,3 C 7,8 C 87 % 986,2 hPa 0,2 l/m 0 min 2 min 0 W/m 45,1 km/h (6 Bft) 100,00 %
07.03.2019 07:00 10,5 C 7,8 C 7,8 C 86 % 986,3 hPa 0,0 l/m 0 min 2 min 0 W/m 48,3 km/h (6 Bft) 100,00 %
07.03.2019 07:02 10,5 C 7,8 C 7,8 C 86 % 986,2 hPa 0,0 l/m 0 min 2 min 0 W/m 35,4 km/h (5 Bft) 100,00 %
07.03.2019 07:04 10,5 C 7,8 C 7,8 C 86 % 986,4 hPa 0,0 l/m 0 min 2 min 0 W/m 54,7 km/h (7 Bft) 100,00 %
07.03.2019 07:06 10,4 C 7,8 C 7,2 C 86 % 986,6 hPa 0,0 l/m 0 min 2 min 0 W/m 29,0 km/h (5 Bft) 100,00 %
07.03.2019 07:08 10,4 C 7,8 C 7,2 C 87 % 986,8 hPa 0,0 l/m 0 min 2 min 0 W/m 29,0 km/h (5 Bft) 100,00 %
07.03.2019 07:10 10,4 C 7,2 C 7,2 C 87 % 987,3 hPa 0,8 l/m 0 min 2 min 0 W/m 61,2 km/h (7 Bft) 97,87 %
07.03.2019 07:12 10,1 C 7,2 C 6,7 C 86 % 987,4 hPa 0,0 l/m 0 min 2 min 0 W/m 38,6 km/h (5 Bft) 100,00 %
07.03.2019 07:14 9,9 C 7,2 C 6,7 C 86 % 987,7 hPa 0,0 l/m 0 min 2 min 0 W/m 51,5 km/h (7 Bft) 100,00 %
07.03.2019 07:16 9,7 C 7,2 C 6,7 C 87 % 987,6 hPa 0,0 l/m 0 min 2 min 0 W/m 51,5 km/h (7 Bft) 100,00 %
07.03.2019 07:18 9,6 C 7,2 C 6,7 C 87 % 987,7 hPa 0,0 l/m 0 min 2 min 0 W/m 54,7 km/h (7 Bft) 100,00 %
07.03.2019 07:20 9,4 C 7,2 C 6,7 C 87 % 987,6 hPa 0,0 l/m 0 min 2 min 0 W/m 45,1 km/h (6 Bft) 97,87 %
07.03.2019 07:22 9,3 C 7,2 C 6,7 C 88 % 988,0 hPa 0,0 l/m 0 min 2 min 0 W/m 48,3 km/h (6 Bft) 97,87 %
07.03.2019 07:24 9,2 C 7,2 C 6,7 C 88 % 987,8 hPa 0,0 l/m 0 min 2 min 0 W/m 54,7 km/h (7 Bft) 97,87 %
07.03.2019 07:26 9,1 C 7,2 C 6,7 C 89 % 988,0 hPa 0,0 l/m 0 min 2 min 1 W/m 29,0 km/h (5 Bft) 100,00 %
07.03.2019 07:28 8,9 C 6,7 C 6,7 C 89 % 988,1 hPa 0,0 l/m 0 min 2 min 5 W/m 45,1 km/h (6 Bft) 100,00 %
07.03.2019 07:30 8,8 C 6,7 C 6,1 C 89 % 988,2 hPa 0,0 l/m 0 min 2 min 4 W/m 45,1 km/h (6 Bft) 100,00 %
07.03.2019 07:32 8,8 C 6,7 C 6,1 C 89 % 988,2 hPa 0,0 l/m 0 min 2 min 0 W/m 25,7 km/h (4 Bft) 97,87 %
07.03.2019 07:34 8,7 C 6,7 C 6,1 C 89 % 988,5 hPa 0,2 l/m 0 min 2 min 2 W/m 38,6 km/h (5 Bft) 97,87 %
07.03.2019 07:36 8,7 C 6,7 C 6,1 C 89 % 988,6 hPa 0,0 l/m 0 min 2 min 10 W/m 32,2 km/h (5 Bft) 97,83 %
07.03.2019 07:38 8,6 C 6,7 C 6,1 C 90 % 989,1 hPa 0,2 l/m 0 min 2 min 11 W/m 45,1 km/h (6 Bft) 95,74 %
07.03.2019 07:40 8,5 C 6,7 C 6,1 C 89 % 988,6 hPa 0,0 l/m 0 min 2 min 13 W/m 45,1 km/h (6 Bft) 95,74 %
07.03.2019 07:42 8,4 C 6,1 C 6,1 C 90 % 988,7 hPa 0,0 l/m 0 min 2 min 16 W/m 25,7 km/h (4 Bft) 93,62 %
07.03.2019 07:44 8,3 C 6,1 C 6,1 C 90 % 988,7 hPa 0,0 l/m 0 min 2 min 18 W/m 25,7 km/h (4 Bft) 95,74 %
07.03.2019 07:46 8,3 C 6,1 C 6,1 C 90 % 988,7 hPa 0,0 l/m 0 min 2 min 18 W/m 35,4 km/h (5 Bft) 95,74 %
07.03.2019 07:48 8,2 C 6,7 C 6,1 C 90 % 988,7 hPa 0,2 l/m 0 min 2 min 19 W/m 32,2 km/h (5 Bft) 95,65 %
07.03.2019 07:50 8,2 C 6,7 C 6,1 C 90 % 988,9 hPa 0,0 l/m 0 min 2 min 19 W/m 35,4 km/h (5 Bft) 95,74 %
07.03.2019 07:52 8,2 C 6,7 C 6,1 C 90 % 989,0 hPa 0,0 l/m 0 min 2 min 19 W/m 22,5 km/h (4 Bft) 93,62 %
07.03.2019 07:54 8,1 C 6,7 C 6,1 C 91 % 989,0 hPa 0,0 l/m 0 min 2 min 18 W/m 32,2 km/h (5 Bft) 95,74 %
07.03.2019 07:56 8,1 C 6,7 C 6,1 C 91 % 989,0 hPa 0,0 l/m 0 min 2 min 18 W/m 25,7 km/h (4 Bft) 95,74 %
07.03.2019 07:58 8,1 C 6,7 C 6,1 C 91 % 989,1 hPa 0,0 l/m 0 min 2 min 18 W/m 29,0 km/h (5 Bft) 95,74 %
07.03.2019 08:00 8,1 C 6,7 C 6,1 C 91 % 989,0 hPa 0,0 l/m 0 min 2 min 20 W/m 35,4 km/h (5 Bft) 95,65 %
07.03.2019 08:02 8,0 C 6,7 C 6,1 C 91 % 989,2 hPa 0,2 l/m 0 min 2 min 22 W/m 41,8 km/h (6 Bft) 95,74 %
07.03.2019 08:04 8,0 C 6,7 C 6,1 C 91 % 989,2 hPa 0,0 l/m 0 min 2 min 23 W/m 35,4 km/h (5 Bft) 95,74 %
07.03.2019 08:06 8,0 C 6,7 C 6,1 C 92 % 989,3 hPa 0,0 l/m 0 min 2 min 21 W/m 38,6 km/h (5 Bft) 89,36 %
07.03.2019 08:08 8,0 C 6,7 C 6,1 C 92 % 989,5 hPa 0,0 l/m 0 min 2 min 18 W/m 41,8 km/h (6 Bft) 93,62 %
07.03.2019 08:10 7,9 C 6,7 C 6,1 C 92 % 989,5 hPa 0,0 l/m 0 min 2 min 16 W/m 32,2 km/h (5 Bft) 93,62 %
07.03.2019 08:12 7,9 C 6,7 C 6,1 C 92 % 989,6 hPa 0,0 l/m 0 min 2 min 14 W/m 35,4 km/h (5 Bft) 97,83 %
07.03.2019 08:14 7,9 C 6,7 C 6,1 C 92 % 989,7 hPa 0,0 l/m 0 min 2 min 14 W/m 35,4 km/h (5 Bft) 95,74 %
07.03.2019 08:16 7,9 C 6,7 C 6,1 C 92 % 989,8 hPa 0,0 l/m 0 min 2 min 14 W/m 45,1 km/h (6 Bft) 95,74 %
07.03.2019 08:18 7,9 C 6,7 C 6,1 C 92 % 989,9 hPa 0,0 l/m 0 min 2 min 14 W/m 29,0 km/h (5 Bft) 95,74 %
07.03.2019 08:20 7,9 C 6,7 C 6,1 C 92 % 990,0 hPa 0,0 l/m 0 min 2 min 15 W/m 38,6 km/h (5 Bft) 95,74 %
07.03.2019 08:22 8,0 C 6,7 C 6,1 C 92 % 989,9 hPa 0,0 l/m 0 min 2 min 16 W/m 19,3 km/h (3 Bft) 95,65 %
07.03.2019 08:24 7,9 C 6,1 C 6,1 C 92 % 990,1 hPa 0,0 l/m 0 min 2 min 19 W/m 29,0 km/h (5 Bft) 93,62 %
07.03.2019 08:26 7,9 C 6,1 C 6,1 C 92 % 990,1 hPa 0,0 l/m 0 min 2 min 20 W/m 22,5 km/h (4 Bft) 95,74 %
07.03.2019 08:28 7,9 C 6,7 C 6,1 C 92 % 990,2 hPa 0,2 l/m 0 min 2 min 23 W/m 51,5 km/h (7 Bft) 95,74 %
07.03.2019 08:30 7,9 C 6,1 C 6,1 C 92 % 990,2 hPa 0,0 l/m 0 min 2 min 26 W/m 32,2 km/h (5 Bft) 100,00 %
07.03.2019 08:32 7,9 C 6,1 C 6,1 C 92 % 990,3 hPa 0,0 l/m 0 min 2 min 30 W/m 32,2 km/h (5 Bft) 100,00 %
07.03.2019 08:34 7,9 C 6,1 C 6,1 C 92 % 990,4 hPa 0,0 l/m 0 min 2 min 33 W/m 29,0 km/h (5 Bft) 97,83 %
07.03.2019 08:36 7,8 C 6,1 C 5,6 C 92 % 990,5 hPa 0,0 l/m 0 min 2 min 37 W/m 25,7 km/h (4 Bft) 97,87 %
07.03.2019 08:38 7,8 C 6,1 C 5,6 C 92 % 990,6 hPa 0,0 l/m 0 min 2 min 41 W/m 32,2 km/h (5 Bft) 97,87 %
07.03.2019 08:40 7,8 C 6,1 C 5,6 C 92 % 990,6 hPa 0,0 l/m 0 min 2 min 45 W/m 19,3 km/h (3 Bft) 97,87 %
07.03.2019 08:42 7,8 C 6,1 C 5,6 C 92 % 990,6 hPa 0,0 l/m 0 min 2 min 46 W/m 16,1 km/h (3 Bft) 100,00 %
07.03.2019 08:44 7,8 C 6,1 C 6,1 C 92 % 990,7 hPa 0,0 l/m 0 min 2 min 51 W/m 29,0 km/h (5 Bft) 95,74 %
07.03.2019 08:46 7,8 C 6,1 C 6,1 C 92 % 990,8 hPa 0,2 l/m 0 min 2 min 63 W/m 22,5 km/h (4 Bft) 95,65 %
07.03.2019 08:48 7,8 C 6,1 C 6,1 C 92 % 990,8 hPa 0,0 l/m 0 min 2 min 73 W/m 32,2 km/h (5 Bft) 95,74 %
07.03.2019 08:50 7,8 C 6,7 C 6,1 C 92 % 990,8 hPa 0,0 l/m 0 min 2 min 75 W/m 16,1 km/h (3 Bft) 97,87 %
07.03.2019 08:52 7,8 C 6,7 C 6,1 C 92 % 990,9 hPa 0,0 l/m 0 min 2 min 83 W/m 12,9 km/h (3 Bft) 93,62 %
07.03.2019 08:54 7,8 C 6,7 C 6,1 C 92 % 990,9 hPa 0,0 l/m 0 min 2 min 90 W/m 29,0 km/h (5 Bft) 95,74 %
07.03.2019 08:56 7,7 C 6,7 C 6,1 C 92 % 991,0 hPa 0,0 l/m 0 min 2 min 98 W/m 29,0 km/h (5 Bft) 97,87 %
07.03.2019 08:58 7,7 C 6,7 C 6,1 C 92 % 991,0 hPa 0,0 l/m 0 min 2 min 108 W/m 38,6 km/h (5 Bft) 97,83 %
07.03.2019 09:00 7,7 C 6,7 C 6,1 C 92 % 991,0 hPa 0,0 l/m 0 min 2 min 115 W/m 38,6 km/h (5 Bft) 97,87 %
07.03.2019 09:02 7,7 C 6,7 C 6,1 C 92 % 991,0 hPa 0,0 l/m 0 min 2 min 127 W/m 41,8 km/h (6 Bft) 97,87 %
07.03.2019 09:04 7,7 C 6,7 C 6,1 C 92 % 991,0 hPa 0,0 l/m 2 min 2 min 150 W/m 29,0 km/h (5 Bft) 97,87 %
07.03.2019 09:06 7,7 C 6,7 C 6,1 C 92 % 991,0 hPa 0,0 l/m 2 min 2 min 165 W/m 45,1 km/h (6 Bft) 97,87 %
07.03.2019 09:08 7,7 C 6,7 C 6,1 C 92 % 991,0 hPa 0,0 l/m 2 min 2 min 155 W/m 38,6 km/h (5 Bft) 97,87 %
07.03.2019 09:10 7,7 C 6,7 C 6,1 C 92 % 991,0 hPa 0,0 l/m 2 min 2 min 153 W/m 32,2 km/h (5 Bft) 97,83 %
07.03.2019 09:12 7,8 C 7,2 C 6,1 C 92 % 991,0 hPa 0,0 l/m 2 min 2 min 176 W/m 32,2 km/h (5 Bft) 97,87 %
07.03.2019 09:14 7,8 C 7,2 C 6,1 C 92 % 991,0 hPa 0,0 l/m 2 min 2 min 199 W/m 32,2 km/h (5 Bft) 97,87 %
07.03.2019 09:16 7,8 C 7,8 C 6,7 C 92 % 991,1 hPa 0,0 l/m 2 min 2 min 165 W/m 32,2 km/h (5 Bft) 97,87 %
07.03.2019 09:18 7,8 C 7,2 C 6,1 C 91 % 991,2 hPa 0,0 l/m 0 min 2 min 114 W/m 32,2 km/h (5 Bft) 97,87 %
07.03.2019 09:20 7,9 C 6,7 C 6,1 C 91 % 991,4 hPa 0,0 l/m 0 min 2 min 70 W/m 38,6 km/h (5 Bft) 97,87 %
07.03.2019 09:22 7,9 C 6,7 C 6,1 C 91 % 991,5 hPa 0,0 l/m 0 min 2 min 51 W/m 29,0 km/h (5 Bft) 95,65 %
07.03.2019 09:24 7,9 C 6,7 C 6,1 C 91 % 991,5 hPa 0,0 l/m 0 min 2 min 44 W/m 22,5 km/h (4 Bft) 97,87 %
07.03.2019 09:26 7,9 C 6,7 C 6,1 C 91 % 991,6 hPa 0,0 l/m 0 min 2 min 39 W/m 38,6 km/h (5 Bft) 97,87 %
07.03.2019 09:28 7,9 C 6,7 C 6,1 C 91 % 991,5 hPa 0,0 l/m 0 min 2 min 35 W/m 25,7 km/h (4 Bft) 97,87 %
07.03.2019 09:30 7,9 C 6,7 C 6,1 C 90 % 991,6 hPa 0,0 l/m 0 min 2 min 52 W/m 51,5 km/h (7 Bft) 97,87 %
07.03.2019 09:32 7,9 C 6,7 C 6,1 C 90 % 991,6 hPa 0,0 l/m 0 min 0 min 64 W/m 19,3 km/h (3 Bft) 95,74 %
07.03.2019 09:34 7,9 C 6,7 C 6,1 C 90 % 991,7 hPa 0,0 l/m 0 min 2 min 66 W/m 29,0 km/h (5 Bft) 100,00 %
07.03.2019 09:36 7,9 C 6,7 C 6,1 C 90 % 991,8 hPa 0,0 l/m 0 min 2 min 69 W/m 32,2 km/h (5 Bft) 97,87 %
07.03.2019 09:38 7,9 C 6,7 C 6,1 C 90 % 991,7 hPa 0,0 l/m 0 min 2 min 64 W/m 19,3 km/h (3 Bft) 100,00 %
07.03.2019 09:40 7,9 C 6,7 C 6,1 C 90 % 991,8 hPa 0,0 l/m 0 min 2 min 75 W/m 32,2 km/h (5 Bft) 100,00 %
07.03.2019 09:42 7,9 C 7,2 C 6,1 C 89 % 991,7 hPa 0,0 l/m 0 min 2 min 90 W/m 29,0 km/h (5 Bft) 100,00 %
07.03.2019 09:44 7,9 C 7,2 C 6,1 C 89 % 991,9 hPa 0,0 l/m 0 min 2 min 87 W/m 25,7 km/h (4 Bft) 100,00 %
07.03.2019 09:46 8,0 C 7,2 C 6,7 C 89 % 991,9 hPa 0,0 l/m 0 min 2 min 89 W/m 25,7 km/h (4 Bft) 100,00 %
07.03.2019 09:48 8,0 C 7,2 C 6,7 C 89 % 991,9 hPa 0,0 l/m 0 min 2 min 98 W/m 29,0 km/h (5 Bft) 97,83 %
07.03.2019 09:50 8,1 C 7,2 C 6,7 C 89 % 992,0 hPa 0,0 l/m 0 min 2 min 125 W/m 29,0 km/h (5 Bft) 100,00 %
07.03.2019 09:52 8,1 C 7,8 C 7,2 C 89 % 992,1 hPa 0,0 l/m 0 min 2 min 167 W/m 38,6 km/h (5 Bft) 100,00 %
07.03.2019 09:54 8,2 C 8,9 C 8,3 C 89 % 992,1 hPa 0,0 l/m 2 min 2 min 284 W/m 32,2 km/h (5 Bft) 100,00 %
07.03.2019 09:56 8,3 C 8,3 C 7,8 C 88 % 992,2 hPa 0,0 l/m 2 min 2 min 282 W/m 22,5 km/h (4 Bft) 100,00 %
07.03.2019 09:58 8,3 C 8,9 C 8,9 C 88 % 992,3 hPa 0,0 l/m 0 min 2 min 128 W/m 22,5 km/h (4 Bft) 100,00 %
07.03.2019 10:00 8,4 C 10,6 C 10,0 C 88 % 992,3 hPa 0,0 l/m 2 min 0 min 251 W/m 16,1 km/h (3 Bft) 100,00 %
07.03.2019 10:02 8,5 C 10,6 C 10,0 C 88 % 992,3 hPa 0,0 l/m 2 min 0 min 431 W/m 19,3 km/h (3 Bft) 97,87 %
07.03.2019 10:04 8,7 C 10,6 C 10,6 C 88 % 992,4 hPa 0,0 l/m 2 min 0 min 443 W/m 25,7 km/h (4 Bft) 100,00 %
07.03.2019 10:06 8,7 C 10,6 C 10,6 C 88 % 992,4 hPa 0,0 l/m 2 min 0 min 427 W/m 29,0 km/h (5 Bft) 100,00 %
07.03.2019 10:08 8,8 C 10,6 C 10,0 C 87 % 992,5 hPa 0,0 l/m 2 min 0 min 486 W/m 22,5 km/h (4 Bft) 100,00 %
07.03.2019 10:10 8,9 C 10,6 C 8,9 C 87 % 992,5 hPa 0,0 l/m 2 min 0 min 279 W/m 29,0 km/h (5 Bft) 100,00 %
07.03.2019 10:12 8,9 C 10,0 C 8,3 C 86 % 992,5 hPa 0,0 l/m 0 min 0 min 140 W/m 16,1 km/h (3 Bft) 97,83 %
07.03.2019 10:14 9,0 C 10,0 C 8,3 C 86 % 992,5 hPa 0,0 l/m 0 min 0 min 194 W/m 29,0 km/h (5 Bft) 97,87 %
07.03.2019 10:16 9,0 C 10,0 C 8,3 C 85 % 992,6 hPa 0,0 l/m 0 min 0 min 176 W/m 25,7 km/h (4 Bft) 95,74 %
07.03.2019 10:18 9,1 C 10,6 C 8,3 C 85 % 992,7 hPa 0,0 l/m 0 min 0 min 208 W/m 16,1 km/h (3 Bft) 97,87 %
07.03.2019 10:20 9,1 C 11,1 C 8,9 C 85 % 992,8 hPa 0,0 l/m 2 min 0 min 249 W/m 22,5 km/h (4 Bft) 100,00 %
07.03.2019 10:22 9,2 C 10,0 C 8,9 C 85 % 992,8 hPa 0,0 l/m 0 min 0 min 206 W/m 29,0 km/h (5 Bft) 97,87 %
07.03.2019 10:24 9,2 C 10,0 C 8,9 C 84 % 992,8 hPa 0,0 l/m 0 min 0 min 187 W/m 32,2 km/h (5 Bft) 95,65 %
07.03.2019 10:26 9,2 C 10,0 C 8,9 C 84 % 993,0 hPa 0,0 l/m 0 min 0 min 198 W/m 35,4 km/h (5 Bft) 97,87 %
07.03.2019 10:28 9,2 C 10,0 C 8,9 C 84 % 993,1 hPa 0,0 l/m 0 min 0 min 195 W/m 22,5 km/h (4 Bft) 97,87 %
07.03.2019 10:30 9,2 C 9,4 C 8,3 C 83 % 993,2 hPa 0,0 l/m 0 min 0 min 167 W/m 22,5 km/h (4 Bft) 97,87 %
07.03.2019 10:32 9,2 C 10,0 C 8,9 C 83 % 993,1 hPa 0,0 l/m 0 min 0 min 158 W/m 45,1 km/h (6 Bft) 97,87 %
07.03.2019 10:34 9,2 C 9,4 C 8,3 C 82 % 992,9 hPa 0,0 l/m 0 min 0 min 159 W/m 41,8 km/h (6 Bft) 93,48 %
07.03.2019 10:36 9,2 C 9,4 C 8,3 C 82 % 993,2 hPa 0,0 l/m 0 min 0 min 148 W/m 25,7 km/h (4 Bft) 98,31 %
07.03.2019 10:38 9,2 C 9,4 C 8,3 C 82 % 993,3 hPa 0,0 l/m 0 min 0 min 159 W/m 38,6 km/h (5 Bft) 97,87 %
07.03.2019 10:40 9,2 C 9,4 C 8,3 C 82 % 993,3 hPa 0,0 l/m 0 min 0 min 175 W/m 25,7 km/h (4 Bft) 97,14 %
07.03.2019 10:42 9,2 C 9,4 C 8,9 C 82 % 993,2 hPa 0,0 l/m 0 min 0 min 194 W/m 29,0 km/h (5 Bft) 95,74 %
07.03.2019 10:44 9,2 C 9,4 C 8,9 C 82 % 993,3 hPa 0,0 l/m 0 min 0 min 187 W/m 41,8 km/h (6 Bft) 95,74 %
07.03.2019 10:46 9,2 C 9,4 C 8,9 C 82 % 993,3 hPa 0,0 l/m 0 min 0 min 181 W/m 16,1 km/h (3 Bft) 95,65 %
07.03.2019 10:48 9,2 C 9,4 C 8,9 C 82 % 993,4 hPa 0,0 l/m 0 min 0 min 185 W/m 22,5 km/h (4 Bft) 95,74 %
07.03.2019 10:50 9,3 C 9,4 C 8,9 C 82 % 993,4 hPa 0,0 l/m 0 min 0 min 168 W/m 22,5 km/h (4 Bft) 95,74 %
07.03.2019 10:52 9,3 C 9,4 C 8,9 C 82 % 993,5 hPa 0,0 l/m 0 min 0 min 133 W/m 22,5 km/h (4 Bft) 95,74 %
07.03.2019 10:54 9,3 C 8,9 C 8,3 C 82 % 993,4 hPa 0,0 l/m 0 min 0 min 100 W/m 48,3 km/h (6 Bft) 93,62 %
07.03.2019 10:56 9,3 C 8,9 C 8,3 C 82 % 993,4 hPa 0,0 l/m 0 min 0 min 71 W/m 25,7 km/h (4 Bft) 95,74 %
07.03.2019 10:58 9,3 C 8,9 C 8,3 C 82 % 993,5 hPa 0,0 l/m 0 min 0 min 81 W/m 19,3 km/h (3 Bft) 95,65 %
07.03.2019 11:00 9,2 C 8,9 C 8,3 C 82 % 993,4 hPa 0,0 l/m 0 min 0 min 73 W/m 19,3 km/h (3 Bft) 93,62 %
07.03.2019 11:02 9,2 C 8,9 C 8,3 C 82 % 993,5 hPa 0,0 l/m 0 min 0 min 87 W/m 32,2 km/h (5 Bft) 95,74 %
07.03.2019 11:04 9,2 C 8,9 C 8,3 C 82 % 993,6 hPa 0,0 l/m 0 min 0 min 108 W/m 29,0 km/h (5 Bft) 95,74 %
07.03.2019 11:06 9,2 C 8,9 C 8,3 C 82 % 993,7 hPa 0,0 l/m 0 min 0 min 155 W/m 32,2 km/h (5 Bft) 98,28 %
07.03.2019 11:08 9,2 C 8,9 C 8,3 C 82 % 993,7 hPa 0,0 l/m 0 min 0 min 151 W/m 57,9 km/h (7 Bft) 97,87 %
07.03.2019 11:10 9,2 C 9,4 C 8,9 C 82 % 993,7 hPa 0,0 l/m 0 min 0 min 172 W/m 41,8 km/h (6 Bft) 97,14 %
07.03.2019 11:12 9,2 C 9,4 C 8,9 C 82 % 993,7 hPa 0,0 l/m 0 min 0 min 156 W/m 32,2 km/h (5 Bft) 97,87 %
07.03.2019 11:14 9,2 C 9,4 C 8,9 C 83 % 993,8 hPa 0,0 l/m 0 min 0 min 138 W/m 19,3 km/h (3 Bft) 95,74 %
07.03.2019 11:16 9,2 C 9,4 C 8,9 C 83 % 993,8 hPa 0,0 l/m 0 min 0 min 189 W/m 29,0 km/h (5 Bft) 97,87 %
07.03.2019 11:18 9,2 C 10,0 C 8,9 C 83 % 993,9 hPa 0,0 l/m 0 min 0 min 244 W/m 45,1 km/h (6 Bft) 97,87 %
07.03.2019 11:20 9,3 C 10,6 C 9,4 C 82 % 993,8 hPa 0,0 l/m 2 min 0 min 324 W/m 32,2 km/h (5 Bft) 95,74 %
07.03.2019 11:22 9,4 C 10,6 C 9,4 C 82 % 993,9 hPa 0,0 l/m 2 min 0 min 436 W/m 35,4 km/h (5 Bft) 97,83 %
07.03.2019 11:24 9,4 C 11,1 C 9,4 C 82 % 993,9 hPa 0,0 l/m 2 min 0 min 339 W/m 45,1 km/h (6 Bft) 97,87 %
07.03.2019 11:26 9,5 C 10,6 C 9,4 C 82 % 993,8 hPa 0,0 l/m 2 min 0 min 301 W/m 32,2 km/h (5 Bft) 97,87 %
07.03.2019 11:28 9,6 C 11,1 C 9,4 C 81 % 993,8 hPa 0,0 l/m 2 min 0 min 273 W/m 35,4 km/h (5 Bft) 97,87 %
07.03.2019 11:30 9,6 C 10,6 C 9,4 C 81 % 993,9 hPa 0,0 l/m 2 min 0 min 281 W/m 19,3 km/h (3 Bft) 97,87 %
07.03.2019 11:32 9,7 C 11,1 C 10,0 C 81 % 993,9 hPa 0,0 l/m 2 min 0 min 270 W/m 41,8 km/h (6 Bft) 95,74 %
07.03.2019 11:34 9,7 C 10,6 C 9,4 C 81 % 993,9 hPa 0,0 l/m 0 min 0 min 236 W/m 54,7 km/h (7 Bft) 97,83 %
07.03.2019 11:36 9,7 C 10,0 C 9,4 C 81 % 993,9 hPa 0,0 l/m 0 min 0 min 190 W/m 67,6 km/h (8 Bft) 100,00 %
07.03.2019 11:38 9,7 C 10,0 C 9,4 C 80 % 993,8 hPa 0,0 l/m 0 min 0 min 210 W/m 38,6 km/h (5 Bft) 100,00 %
07.03.2019 11:40 9,8 C 10,6 C 9,4 C 80 % 993,9 hPa 0,0 l/m 0 min 0 min 223 W/m 48,3 km/h (6 Bft) 100,00 %
07.03.2019 11:42 9,8 C 11,7 C 9,4 C 79 % 994,0 hPa 0,0 l/m 2 min 0 min 396 W/m 38,6 km/h (5 Bft) 100,00 %
07.03.2019 11:44 9,8 C 11,1 C 9,4 C 79 % 994,0 hPa 0,0 l/m 2 min 0 min 346 W/m 41,8 km/h (6 Bft) 97,87 %
07.03.2019 11:46 9,9 C 10,6 C 9,4 C 79 % 993,9 hPa 0,0 l/m 0 min 0 min 232 W/m 32,2 km/h (5 Bft) 100,00 %
07.03.2019 11:48 9,9 C 10,6 C 9,4 C 79 % 994,0 hPa 0,0 l/m 0 min 0 min 185 W/m 41,8 km/h (6 Bft) 100,00 %
07.03.2019 11:50 9,9 C 11,1 C 9,4 C 79 % 994,0 hPa 0,0 l/m 0 min 0 min 242 W/m 19,3 km/h (3 Bft) 95,74 %
07.03.2019 11:52 10,0 C 11,1 C 10,0 C 79 % 994,0 hPa 0,0 l/m 0 min 0 min 174 W/m 16,1 km/h (3 Bft) 95,74 %
07.03.2019 11:54 10,0 C 10,6 C 9,4 C 79 % 994,1 hPa 0,0 l/m 0 min 0 min 178 W/m 35,4 km/h (5 Bft) 97,87 %
07.03.2019 11:56 10,0 C 10,0 C 9,4 C 78 % 994,1 hPa 0,0 l/m 0 min 0 min 192 W/m 41,8 km/h (6 Bft) 100,00 %
07.03.2019 11:58 10,0 C 10,0 C 9,4 C 78 % 994,0 hPa 0,0 l/m 0 min 0 min 192 W/m 61,2 km/h (7 Bft) 97,87 %
07.03.2019 12:00 10,0 C 10,6 C 9,4 C 78 % 994,1 hPa 0,0 l/m 0 min 0 min 190 W/m 29,0 km/h (5 Bft) 97,87 %
07.03.2019 12:02 10,1 C 12,2 C 10,0 C 79 % 994,2 hPa 0,0 l/m 0 min 0 min 207 W/m 19,3 km/h (3 Bft) 97,87 %
07.03.2019 12:04 10,1 C 11,1 C 10,0 C 79 % 994,3 hPa 0,0 l/m 0 min 0 min 208 W/m 51,5 km/h (7 Bft) 100,00 %
07.03.2019 12:07 10,2 C 12,2 C 10,0 C 77 % 994,2 hPa 0,0 l/m 0 min 0 min 193 W/m 38,6 km/h (5 Bft) 98,78 %
07.03.2019 12:08 10,2 C 12,8 C 10,0 C 77 % 994,2 hPa 0,0 l/m 0 min 0 min 195 W/m 32,2 km/h (5 Bft) 100,00 %
07.03.2019 12:10 10,2 C 13,3 C 10,6 C 78 % 994,2 hPa 0,0 l/m 2 min 0 min 420 W/m 25,7 km/h (4 Bft) 97,87 %
07.03.2019 12:12 10,3 C 12,8 C 10,6 C 78 % 994,4 hPa 0,0 l/m 2 min 0 min 686 W/m 61,2 km/h (7 Bft) 97,87 %
07.03.2019 12:14 10,4 C 11,1 C 10,6 C 77 % 994,2 hPa 0,0 l/m 2 min 0 min 295 W/m 51,5 km/h (7 Bft) 97,87 %
07.03.2019 12:16 10,5 C 12,2 C 10,0 C 76 % 994,3 hPa 0,0 l/m 0 min 0 min 203 W/m 51,5 km/h (7 Bft) 95,74 %
07.03.2019 12:18 10,6 C 13,9 C 10,6 C 76 % 994,4 hPa 0,0 l/m 2 min 0 min 697 W/m 35,4 km/h (5 Bft) 97,87 %
07.03.2019 12:20 10,7 C 14,4 C 10,6 C 77 % 994,3 hPa 0,0 l/m 2 min 0 min 705 W/m 22,5 km/h (4 Bft) 95,65 %
07.03.2019 12:22 10,8 C 13,3 C 10,6 C 77 % 994,4 hPa 0,0 l/m 0 min 0 min 256 W/m 48,3 km/h (6 Bft) 97,87 %
07.03.2019 12:24 10,8 C 12,2 C 10,0 C 76 % 994,4 hPa 0,0 l/m 2 min 0 min 311 W/m 32,2 km/h (5 Bft) 97,87 %
07.03.2019 12:26 10,9 C 13,9 C 10,6 C 77 % 994,4 hPa 0,0 l/m 2 min 0 min 311 W/m 22,5 km/h (4 Bft) 97,87 %
07.03.2019 12:28 10,9 C 12,8 C 10,6 C 77 % 994,4 hPa 0,0 l/m 2 min 0 min 300 W/m 41,8 km/h (6 Bft) 97,87 %
07.03.2019 12:30 10,8 C 11,1 C 10,0 C 76 % 994,4 hPa 0,0 l/m 0 min 0 min 150 W/m 41,8 km/h (6 Bft) 97,87 %
07.03.2019 12:32 10,8 C 13,3 C 10,6 C 76 % 994,5 hPa 0,0 l/m 2 min 0 min 333 W/m 48,3 km/h (6 Bft) 97,83 %
07.03.2019 12:34 10,8 C 12,2 C 10,6 C 76 % 994,4 hPa 0,0 l/m 2 min 0 min 652 W/m 25,7 km/h (4 Bft) 97,87 %
07.03.2019 12:36 10,8 C 11,7 C 10,6 C 76 % 994,4 hPa 0,0 l/m 2 min 0 min 343 W/m 41,8 km/h (6 Bft) 94,92 %
07.03.2019 12:38 10,7 C 11,7 C 10,6 C 77 % 994,4 hPa 0,0 l/m 0 min 0 min 194 W/m 22,5 km/h (4 Bft) 94,29 %
07.03.2019 12:40 10,7 C 11,7 C 10,6 C 77 % 994,4 hPa 0,0 l/m 0 min 0 min 229 W/m 41,8 km/h (6 Bft) 95,74 %
07.03.2019 12:42 10,7 C 11,7 C 11,1 C 77 % 994,4 hPa 0,0 l/m 2 min 0 min 313 W/m 35,4 km/h (5 Bft) 95,74 %
07.03.2019 12:44 10,7 C 12,2 C 11,7 C 76 % 994,3 hPa 0,0 l/m 2 min 0 min 359 W/m 57,9 km/h (7 Bft) 95,65 %
07.03.2019 12:46 10,7 C 11,7 C 11,1 C 76 % 994,5 hPa 0,0 l/m 2 min 0 min 350 W/m 41,8 km/h (6 Bft) 95,74 %
07.03.2019 12:48 10,8 C 12,8 C 11,7 C 75 % 994,5 hPa 0,0 l/m 2 min 0 min 275 W/m 38,6 km/h (5 Bft) 91,49 %
07.03.2019 12:50 10,8 C 13,3 C 12,8 C 75 % 994,5 hPa 0,0 l/m 2 min 0 min 356 W/m 48,3 km/h (6 Bft) 95,74 %
07.03.2019 12:52 10,9 C 14,4 C 13,9 C 75 % 994,4 hPa 0,0 l/m 2 min 0 min 375 W/m 32,2 km/h (5 Bft) 93,62 %
07.03.2019 12:54 11,1 C 14,4 C 13,9 C 76 % 994,4 hPa 0,0 l/m 2 min 0 min 371 W/m 32,2 km/h (5 Bft) 95,74 %
07.03.2019 12:56 11,2 C 15,6 C 15,6 C 75 % 994,5 hPa 0,0 l/m 2 min 0 min 514 W/m 61,2 km/h (7 Bft) 95,65 %
07.03.2019 12:58 11,3 C 14,4 C 14,4 C 74 % 994,5 hPa 0,0 l/m 2 min 0 min 704 W/m 25,7 km/h (4 Bft) 97,87 %
07.03.2019 13:00 11,4 C 13,9 C 13,3 C 73 % 994,5 hPa 0,0 l/m 0 min 0 min 259 W/m 29,0 km/h (5 Bft) 95,74 %
07.03.2019 13:02 11,5 C 15,6 C 15,0 C 73 % 994,5 hPa 0,0 l/m 2 min 0 min 597 W/m 29,0 km/h (5 Bft) 95,74 %
07.03.2019 13:04 11,6 C 13,9 C 13,3 C 74 % 994,8 hPa 0,0 l/m 2 min 0 min 614 W/m 41,8 km/h (6 Bft) 95,74 %
07.03.2019 13:06 11,6 C 15,0 C 14,4 C 72 % 994,5 hPa 0,0 l/m 2 min 0 min 453 W/m 51,5 km/h (7 Bft) 93,10 %
07.03.2019 13:08 11,7 C 14,4 C 13,9 C 72 % 994,5 hPa 0,0 l/m 2 min 0 min 765 W/m 35,4 km/h (5 Bft) 95,24 %
07.03.2019 13:10 11,6 C 12,2 C 11,7 C 71 % 994,6 hPa 0,0 l/m 2 min 0 min 453 W/m 51,5 km/h (7 Bft) 95,74 %
07.03.2019 13:12 11,6 C 12,2 C 11,7 C 71 % 994,4 hPa 0,0 l/m 0 min 0 min 263 W/m 32,2 km/h (5 Bft) 91,49 %
07.03.2019 13:14 11,6 C 11,7 C 11,1 C 71 % 994,6 hPa 0,0 l/m 2 min 0 min 274 W/m 38,6 km/h (5 Bft) 95,74 %
07.03.2019 13:16 11,5 C 12,8 C 12,2 C 71 % 994,6 hPa 0,0 l/m 2 min 0 min 300 W/m 38,6 km/h (5 Bft) 97,83 %
07.03.2019 13:18 11,5 C 12,2 C 12,2 C 70 % 994,6 hPa 0,0 l/m 2 min 0 min 418 W/m 41,8 km/h (6 Bft) 95,74 %
07.03.2019 13:20 11,5 C 13,3 C 13,3 C 71 % 994,6 hPa 0,0 l/m 2 min 0 min 365 W/m 25,7 km/h (4 Bft) 95,74 %
07.03.2019 13:22 11,5 C 12,2 C 11,7 C 70 % 994,5 hPa 0,0 l/m 0 min 0 min 252 W/m 45,1 km/h (6 Bft) 97,87 %
07.03.2019 13:24 11,5 C 12,2 C 11,7 C 70 % 994,6 hPa 0,0 l/m 0 min 0 min 171 W/m 41,8 km/h (6 Bft) 97,87 %
07.03.2019 13:26 11,5 C 13,9 C 13,3 C 70 % 994,5 hPa 0,0 l/m 0 min 0 min 261 W/m 29,0 km/h (5 Bft) 97,83 %
07.03.2019 13:28 11,6 C 14,4 C 13,9 C 71 % 994,5 hPa 0,0 l/m 2 min 0 min 271 W/m 29,0 km/h (5 Bft) 97,87 %
07.03.2019 13:30 11,6 C 15,6 C 15,0 C 71 % 994,6 hPa 0,0 l/m 2 min 0 min 566 W/m 29,0 km/h (5 Bft) 100,00 %
07.03.2019 13:32 11,7 C 15,0 C 15,0 C 70 % 994,6 hPa 0,0 l/m 2 min 0 min 673 W/m 35,4 km/h (5 Bft) 95,74 %
07.03.2019 13:34 11,8 C 13,3 C 12,8 C 70 % 994,5 hPa 0,0 l/m 2 min 0 min 499 W/m 45,1 km/h (6 Bft) 100,00 %
07.03.2019 13:36 11,8 C 13,9 C 12,8 C 69 % 994,6 hPa 0,0 l/m 0 min 0 min 210 W/m 35,4 km/h (5 Bft) 98,28 %
07.03.2019 13:38 11,8 C 12,2 C 11,7 C 69 % 994,5 hPa 0,0 l/m 0 min 0 min 172 W/m 35,4 km/h (5 Bft) 94,29 %
07.03.2019 13:40 11,8 C 11,7 C 11,1 C 68 % 994,5 hPa 0,0 l/m 0 min 0 min 126 W/m 25,7 km/h (4 Bft) 97,87 %
07.03.2019 13:42 11,7 C 12,8 C 11,1 C 69 % 994,5 hPa 0,0 l/m 0 min 0 min 174 W/m 25,7 km/h (4 Bft) 97,87 %
07.03.2019 13:44 11,7 C 15,0 C 11,7 C 69 % 994,6 hPa 0,0 l/m 2 min 0 min 689 W/m 38,6 km/h (5 Bft) 97,87 %
07.03.2019 13:46 11,8 C 14,4 C 11,1 C 69 % 994,9 hPa 0,0 l/m 2 min 0 min 665 W/m 57,9 km/h (7 Bft) 97,87 %
07.03.2019 13:48 11,7 C 13,9 C 10,6 C 69 % 994,8 hPa 0,0 l/m 2 min 0 min 675 W/m 51,5 km/h (7 Bft) 97,87 %
07.03.2019 13:50 11,6 C 12,2 C 10,6 C 69 % 994,9 hPa 0,0 l/m 2 min 0 min 682 W/m 57,9 km/h (7 Bft) 97,83 %
07.03.2019 13:52 11,5 C 11,7 C 10,0 C 70 % 995,0 hPa 0,0 l/m 2 min 0 min 568 W/m 35,4 km/h (5 Bft) 97,87 %
07.03.2019 13:54 11,3 C 11,7 C 10,0 C 70 % 994,8 hPa 0,0 l/m 0 min 0 min 218 W/m 61,2 km/h (7 Bft) 97,87 %
07.03.2019 13:56 11,2 C 13,3 C 10,0 C 71 % 994,9 hPa 0,0 l/m 2 min 0 min 461 W/m 48,3 km/h (6 Bft) 97,87 %
07.03.2019 13:58 11,1 C 13,3 C 10,6 C 72 % 994,9 hPa 0,0 l/m 2 min 0 min 658 W/m 29,0 km/h (5 Bft) 93,62 %
07.03.2019 14:00 11,0 C 12,2 C 10,0 C 73 % 994,9 hPa 0,0 l/m 2 min 0 min 626 W/m 32,2 km/h (5 Bft) 97,87 %
07.03.2019 14:02 11,0 C 12,8 C 10,6 C 73 % 994,9 hPa 0,0 l/m 2 min 0 min 626 W/m 38,6 km/h (5 Bft) 97,83 %
07.03.2019 14:04 10,9 C 12,8 C 10,0 C 72 % 994,9 hPa 0,0 l/m 2 min 0 min 626 W/m 48,3 km/h (6 Bft) 97,87 %
07.03.2019 14:06 11,0 C 13,9 C 10,6 C 73 % 995,0 hPa 0,0 l/m 2 min 0 min 613 W/m 54,7 km/h (7 Bft) 93,22 %
07.03.2019 14:08 11,0 C 14,4 C 10,6 C 72 % 994,9 hPa 0,0 l/m 2 min 0 min 599 W/m 51,5 km/h (7 Bft) 100,00 %
07.03.2019 14:10 11,1 C 14,4 C 10,6 C 71 % 994,9 hPa 0,0 l/m 2 min 0 min 587 W/m 35,4 km/h (5 Bft) 97,87 %
07.03.2019 14:12 11,1 C 14,4 C 10,6 C 71 % 994,9 hPa 0,0 l/m 2 min 0 min 590 W/m 51,5 km/h (7 Bft) 95,74 %
07.03.2019 14:14 11,2 C 15,0 C 10,6 C 71 % 995,1 hPa 0,0 l/m 2 min 0 min 598 W/m 41,8 km/h (6 Bft) 97,83 %
07.03.2019 14:16 11,3 C 13,9 C 10,6 C 71 % 995,0 hPa 0,0 l/m 2 min 0 min 616 W/m 48,3 km/h (6 Bft) 97,87 %
07.03.2019 14:18 11,3 C 13,3 C 10,6 C 70 % 995,0 hPa 0,0 l/m 2 min 0 min 618 W/m 45,1 km/h (6 Bft) 95,74 %
07.03.2019 14:20 11,3 C 12,2 C 10,6 C 70 % 995,0 hPa 0,0 l/m 2 min 0 min 620 W/m 48,3 km/h (6 Bft) 100,00 %
07.03.2019 14:22 11,2 C 12,2 C 10,6 C 69 % 995,1 hPa 0,0 l/m 2 min 0 min 257 W/m 45,1 km/h (6 Bft) 100,00 %
07.03.2019 14:24 11,2 C 13,3 C 10,6 C 71 % 995,0 hPa 0,0 l/m 2 min 0 min 271 W/m 35,4 km/h (5 Bft) 93,62 %
07.03.2019 14:26 11,2 C 13,9 C 11,1 C 71 % 995,1 hPa 0,0 l/m 2 min 0 min 409 W/m 41,8 km/h (6 Bft) 100,00 %
07.03.2019 14:28 11,2 C 14,4 C 10,6 C 71 % 995,1 hPa 0,0 l/m 2 min 0 min 644 W/m 41,8 km/h (6 Bft) 93,62 %
07.03.2019 14:30 11,2 C 13,9 C 10,6 C 71 % 995,1 hPa 0,0 l/m 2 min 0 min 601 W/m 38,6 km/h (5 Bft) 97,87 %
07.03.2019 14:32 11,3 C 14,4 C 10,6 C 70 % 994,9 hPa 0,0 l/m 2 min 0 min 580 W/m 45,1 km/h (6 Bft) 97,87 %
07.03.2019 14:34 11,3 C 13,9 C 10,6 C 71 % 995,0 hPa 0,0 l/m 2 min 0 min 583 W/m 32,2 km/h (5 Bft) 100,00 %
07.03.2019 14:36 11,3 C 13,9 C 10,6 C 72 % 994,9 hPa 0,0 l/m 2 min 0 min 582 W/m 22,5 km/h (4 Bft) 100,00 %
07.03.2019 14:38 11,3 C 13,9 C 10,6 C 72 % 994,8 hPa 0,0 l/m 2 min 0 min 582 W/m 32,2 km/h (5 Bft) 98,00 %
07.03.2019 14:40 11,3 C 15,0 C 10,6 C 72 % 994,8 hPa 0,0 l/m 2 min 0 min 587 W/m 19,3 km/h (3 Bft) 100,00 %
07.03.2019 14:42 11,4 C 14,4 C 10,6 C 72 % 994,8 hPa 0,0 l/m 2 min 0 min 629 W/m 35,4 km/h (5 Bft) 100,00 %
07.03.2019 14:44 11,4 C 13,9 C 10,6 C 70 % 994,8 hPa 0,0 l/m 2 min 0 min 642 W/m 54,7 km/h (7 Bft) 100,00 %
07.03.2019 14:46 11,4 C 13,3 C 10,6 C 71 % 994,8 hPa 0,0 l/m 2 min 0 min 649 W/m 45,1 km/h (6 Bft) 97,87 %
07.03.2019 14:48 11,4 C 12,8 C 10,6 C 71 % 994,9 hPa 0,0 l/m 2 min 0 min 650 W/m 45,1 km/h (6 Bft) 100,00 %
07.03.2019 14:50 11,3 C 13,3 C 11,1 C 71 % 994,8 hPa 0,0 l/m 2 min 0 min 651 W/m 32,2 km/h (5 Bft) 100,00 %
07.03.2019 14:52 11,4 C 13,9 C 10,6 C 72 % 994,8 hPa 0,0 l/m 2 min 0 min 603 W/m 32,2 km/h (5 Bft) 100,00 %
07.03.2019 14:54 11,4 C 15,6 C 11,1 C 72 % 994,9 hPa 0,0 l/m 2 min 0 min 542 W/m 29,0 km/h (5 Bft) 100,00 %
07.03.2019 14:56 11,4 C 13,9 C 10,6 C 72 % 994,9 hPa 0,0 l/m 2 min 0 min 539 W/m 41,8 km/h (6 Bft) 97,87 %
07.03.2019 14:58 11,4 C 13,9 C 10,6 C 71 % 994,8 hPa 0,0 l/m 2 min 0 min 539 W/m 48,3 km/h (6 Bft) 100,00 %
07.03.2019 15:00 11,4 C 13,3 C 10,6 C 71 % 994,9 hPa 0,0 l/m 2 min 0 min 520 W/m 38,6 km/h (5 Bft) 97,83 %
07.03.2019 15:02 11,4 C 12,2 C 10,6 C 70 % 994,9 hPa 0,0 l/m 2 min 0 min 393 W/m 35,4 km/h (5 Bft) 97,87 %
07.03.2019 15:04 11,3 C 11,1 C 10,0 C 71 % 995,0 hPa 0,0 l/m 0 min 0 min 151 W/m 32,2 km/h (5 Bft) 93,62 %
07.03.2019 15:06 11,2 C 10,6 C 10,0 C 71 % 994,9 hPa 0,0 l/m 0 min 0 min 145 W/m 25,7 km/h (4 Bft) 95,74 %
07.03.2019 15:08 11,1 C 10,6 C 10,0 C 71 % 995,0 hPa 0,0 l/m 0 min 0 min 154 W/m 22,5 km/h (4 Bft) 95,74 %
07.03.2019 15:10 11,1 C 10,6 C 10,0 C 72 % 995,0 hPa 0,0 l/m 0 min 0 min 102 W/m 25,7 km/h (4 Bft) 97,83 %
07.03.2019 15:12 10,9 C 10,0 C 9,4 C 72 % 994,9 hPa 0,0 l/m 0 min 0 min 68 W/m 29,0 km/h (5 Bft) 97,87 %
07.03.2019 15:14 10,9 C 8,9 C 9,4 C 73 % 995,1 hPa 0,0 l/m 0 min 2 min 70 W/m 45,1 km/h (6 Bft) 95,74 %
07.03.2019 15:16 10,7 C 7,2 C 7,2 C 75 % 995,0 hPa 0,0 l/m 0 min 2 min 77 W/m 38,6 km/h (5 Bft) 93,62 %
07.03.2019 15:18 10,4 C 6,7 C 6,7 C 77 % 995,0 hPa 0,0 l/m 0 min 2 min 65 W/m 38,6 km/h (5 Bft) 97,87 %
07.03.2019 15:20 10,2 C 6,1 C 6,1 C 78 % 994,9 hPa 0,2 l/m 0 min 2 min 70 W/m 83,7 km/h (9 Bft) 97,87 %
07.03.2019 15:22 9,9 C 6,1 C 6,1 C 79 % 995,0 hPa 0,0 l/m 0 min 2 min 80 W/m 51,5 km/h (7 Bft) 97,83 %
07.03.2019 15:24 9,6 C 6,7 C 6,1 C 80 % 995,0 hPa 0,0 l/m 0 min 2 min 120 W/m 35,4 km/h (5 Bft) 95,74 %
07.03.2019 15:26 9,4 C 6,7 C 6,1 C 81 % 995,1 hPa 0,2 l/m 2 min 2 min 236 W/m 38,6 km/h (5 Bft) 97,87 %
07.03.2019 15:28 9,2 C 7,8 C 6,7 C 83 % 995,0 hPa 0,0 l/m 0 min 2 min 175 W/m 38,6 km/h (5 Bft) 97,87 %
07.03.2019 15:30 9,2 C 8,3 C 6,7 C 84 % 995,2 hPa 0,0 l/m 0 min 2 min 167 W/m 35,4 km/h (5 Bft) 97,87 %
07.03.2019 15:32 9,1 C 8,3 C 6,7 C 85 % 995,0 hPa 0,0 l/m 0 min 2 min 167 W/m 32,2 km/h (5 Bft) 97,87 %
07.03.2019 15:34 9,1 C 9,4 C 7,2 C 86 % 995,0 hPa 0,0 l/m 2 min 0 min 412 W/m 35,4 km/h (5 Bft) 97,83 %
07.03.2019 15:36 9,1 C 10,0 C 7,8 C 86 % 995,0 hPa 0,0 l/m 2 min 0 min 423 W/m 22,5 km/h (4 Bft) 95,74 %
07.03.2019 15:38 9,1 C 9,4 C 7,2 C 86 % 994,9 hPa 0,2 l/m 2 min 0 min 397 W/m 35,4 km/h (5 Bft) 97,87 %
07.03.2019 15:40 9,1 C 9,4 C 7,8 C 87 % 994,9 hPa 0,0 l/m 2 min 0 min 389 W/m 29,0 km/h (5 Bft) 97,87 %
07.03.2019 15:42 9,2 C 10,0 C 7,8 C 87 % 994,9 hPa 0,0 l/m 2 min 0 min 385 W/m 32,2 km/h (5 Bft) 95,74 %
07.03.2019 15:44 9,3 C 10,0 C 7,8 C 87 % 995,0 hPa 0,0 l/m 2 min 0 min 380 W/m 25,7 km/h (4 Bft) 100,00 %
07.03.2019 15:46 9,3 C 10,0 C 7,8 C 87 % 995,0 hPa 0,0 l/m 2 min 0 min 378 W/m 32,2 km/h (5 Bft) 97,83 %
07.03.2019 15:48 9,4 C 9,4 C 7,8 C 86 % 995,0 hPa 0,0 l/m 2 min 0 min 358 W/m 35,4 km/h (5 Bft) 100,00 %
07.03.2019 15:50 9,5 C 10,6 C 7,8 C 86 % 994,9 hPa 0,0 l/m 2 min 0 min 355 W/m 25,7 km/h (4 Bft) 95,74 %
07.03.2019 15:52 9,6 C 10,6 C 8,3 C 85 % 994,8 hPa 0,0 l/m 2 min 0 min 399 W/m 29,0 km/h (5 Bft) 95,74 %
07.03.2019 15:54 9,7 C 9,4 C 7,8 C 85 % 995,0 hPa 0,0 l/m 2 min 0 min 246 W/m 35,4 km/h (5 Bft) 97,87 %
07.03.2019 15:56 9,8 C 9,4 C 7,8 C 84 % 995,0 hPa 0,0 l/m 0 min 0 min 145 W/m 32,2 km/h (5 Bft) 100,00 %
07.03.2019 15:58 9,8 C 8,9 C 7,8 C 83 % 994,9 hPa 0,0 l/m 0 min 0 min 123 W/m 35,4 km/h (5 Bft) 100,00 %
07.03.2019 16:00 9,9 C 9,4 C 7,8 C 82 % 994,9 hPa 0,0 l/m 0 min 0 min 153 W/m 35,4 km/h (5 Bft) 97,87 %
07.03.2019 16:02 9,9 C 8,9 C 7,8 C 81 % 995,0 hPa 0,0 l/m 0 min 0 min 138 W/m 32,2 km/h (5 Bft) 100,00 %
07.03.2019 16:04 10,0 C 8,9 C 7,8 C 80 % 994,9 hPa 0,0 l/m 0 min 0 min 102 W/m 29,0 km/h (5 Bft) 97,87 %
07.03.2019 16:06 10,0 C 8,9 C 7,8 C 79 % 995,0 hPa 0,0 l/m 0 min 0 min 88 W/m 41,8 km/h (6 Bft) 100,00 %
07.03.2019 16:08 10,1 C 8,9 C 7,8 C 79 % 994,9 hPa 0,0 l/m 0 min 0 min 64 W/m 32,2 km/h (5 Bft) 97,87 %
07.03.2019 16:10 10,1 C 8,9 C 7,8 C 78 % 995,0 hPa 0,0 l/m 0 min 0 min 54 W/m 19,3 km/h (3 Bft) 97,83 %
07.03.2019 16:12 10,1 C 10,6 C 8,9 C 78 % 995,1 hPa 0,0 l/m 0 min 0 min 105 W/m 25,7 km/h (4 Bft) 97,87 %
07.03.2019 16:14 10,2 C 11,7 C 8,9 C 77 % 995,0 hPa 0,0 l/m 2 min 0 min 243 W/m 19,3 km/h (3 Bft) 97,87 %
07.03.2019 16:16 10,3 C 11,7 C 9,4 C 77 % 995,2 hPa 0,0 l/m 2 min 0 min 301 W/m 48,3 km/h (6 Bft) 95,74 %
07.03.2019 16:18 10,4 C 11,1 C 8,9 C 77 % 995,0 hPa 0,0 l/m 2 min 0 min 325 W/m 48,3 km/h (6 Bft) 95,74 %
07.03.2019 16:20 10,4 C 10,6 C 8,3 C 76 % 995,1 hPa 0,0 l/m 0 min 0 min 75 W/m 29,0 km/h (5 Bft) 95,74 %
07.03.2019 16:22 10,4 C 10,6 C 8,3 C 76 % 995,1 hPa 0,0 l/m 0 min 0 min 73 W/m 25,7 km/h (4 Bft) 95,65 %
07.03.2019 16:24 10,5 C 11,1 C 8,9 C 76 % 995,1 hPa 0,0 l/m 0 min 0 min 141 W/m 32,2 km/h (5 Bft) 95,74 %
07.03.2019 16:26 10,6 C 12,2 C 10,0 C 75 % 995,3 hPa 0,0 l/m 2 min 0 min 333 W/m 32,2 km/h (5 Bft) 93,62 %
07.03.2019 16:28 10,6 C 12,2 C 8,9 C 74 % 995,2 hPa 0,0 l/m 2 min 0 min 367 W/m 51,5 km/h (7 Bft) 91,49 %
07.03.2019 16:30 10,7 C 12,2 C 8,9 C 73 % 995,1 hPa 0,0 l/m 2 min 0 min 336 W/m 35,4 km/h (5 Bft) 93,62 %
07.03.2019 16:32 10,8 C 12,8 C 8,9 C 72 % 995,1 hPa 0,0 l/m 2 min 0 min 319 W/m 32,2 km/h (5 Bft) 91,30 %
07.03.2019 16:34 10,8 C 12,2 C 8,9 C 72 % 995,2 hPa 0,0 l/m 2 min 0 min 318 W/m 38,6 km/h (5 Bft) 95,74 %
07.03.2019 16:36 10,8 C 11,1 C 8,3 C 72 % 995,1 hPa 0,0 l/m 2 min 0 min 257 W/m 32,2 km/h (5 Bft) 95,74 %
07.03.2019 16:38 10,8 C 10,6 C 8,3 C 71 % 995,2 hPa 0,0 l/m 0 min 0 min 68 W/m 41,8 km/h (6 Bft) 95,74 %
07.03.2019 16:40 10,8 C 11,7 C 8,3 C 72 % 995,2 hPa 0,0 l/m 2 min 0 min 184 W/m 29,0 km/h (5 Bft) 95,74 %
07.03.2019 16:42 10,8 C 11,1 C 8,9 C 72 % 995,1 hPa 0,0 l/m 2 min 0 min 256 W/m 32,2 km/h (5 Bft) 95,74 %
07.03.2019 16:44 10,8 C 11,1 C 8,9 C 71 % 995,2 hPa 0,0 l/m 2 min 0 min 131 W/m 57,9 km/h (7 Bft) 95,65 %
07.03.2019 16:46 10,8 C 10,6 C 8,9 C 70 % 995,3 hPa 0,0 l/m 0 min 0 min 88 W/m 41,8 km/h (6 Bft) 95,74 %
07.03.2019 16:48 10,7 C 10,0 C 9,4 C 70 % 995,2 hPa 0,0 l/m 0 min 0 min 103 W/m 57,9 km/h (7 Bft) 95,74 %
07.03.2019 16:50 10,7 C 10,6 C 9,4 C 70 % 995,2 hPa 0,0 l/m 2 min 0 min 157 W/m 38,6 km/h (5 Bft) 93,62 %
07.03.2019 16:52 10,7 C 10,6 C 9,4 C 71 % 995,1 hPa 0,0 l/m 2 min 0 min 158 W/m 45,1 km/h (6 Bft) 95,74 %
07.03.2019 16:54 10,6 C 10,6 C 9,4 C 70 % 995,2 hPa 0,0 l/m 2 min 0 min 175 W/m 48,3 km/h (6 Bft) 93,62 %
07.03.2019 16:56 10,6 C 10,6 C 9,4 C 71 % 995,2 hPa 0,0 l/m 2 min 0 min 173 W/m 25,7 km/h (4 Bft) 95,65 %
07.03.2019 16:58 10,6 C 10,0 C 9,4 C 71 % 995,2 hPa 0,0 l/m 0 min 0 min 58 W/m 35,4 km/h (5 Bft) 95,74 %
07.03.2019 17:00 10,5 C 9,4 C 8,9 C 71 % 995,1 hPa 0,0 l/m 0 min 0 min 25 W/m 32,2 km/h (5 Bft) 93,62 %
07.03.2019 17:02 10,4 C 9,4 C 8,9 C 71 % 995,1 hPa 0,0 l/m 0 min 0 min 21 W/m 51,5 km/h (7 Bft) 93,62 %
07.03.2019 17:04 10,4 C 9,4 C 8,9 C 71 % 995,2 hPa 0,0 l/m 0 min 0 min 19 W/m 41,8 km/h (6 Bft) 97,87 %
07.03.2019 17:06 10,3 C 8,9 C 8,9 C 72 % 995,2 hPa 0,0 l/m 0 min 2 min 17 W/m 64,4 km/h (8 Bft) 95,74 %
07.03.2019 17:08 10,2 C 8,3 C 7,8 C 73 % 995,3 hPa 0,0 l/m 0 min 2 min 28 W/m 48,3 km/h (6 Bft) 97,83 %
07.03.2019 17:10 10,2 C 8,3 C 7,2 C 74 % 995,4 hPa 0,0 l/m 0 min 2 min 57 W/m 61,2 km/h (7 Bft) 97,87 %
07.03.2019 17:12 10,1 C 8,3 C 7,2 C 75 % 995,6 hPa 0,0 l/m 2 min 2 min 93 W/m 48,3 km/h (6 Bft) 100,00 %
07.03.2019 17:14 9,9 C 7,2 C 6,7 C 77 % 995,5 hPa 0,0 l/m 2 min 2 min 87 W/m 57,9 km/h (7 Bft) 97,87 %
07.03.2019 17:16 9,7 C 7,2 C 6,7 C 77 % 995,4 hPa 0,0 l/m 0 min 2 min 74 W/m 54,7 km/h (7 Bft) 100,00 %
07.03.2019 17:18 9,4 C 7,8 C 6,7 C 78 % 995,4 hPa 0,0 l/m 2 min 2 min 92 W/m 51,5 km/h (7 Bft) 100,00 %
07.03.2019 17:20 9,3 C 8,3 C 7,2 C 78 % 995,5 hPa 0,0 l/m 2 min 0 min 106 W/m 38,6 km/h (5 Bft) 100,00 %
07.03.2019 17:22 9,2 C 8,9 C 7,8 C 77 % 995,5 hPa 0,0 l/m 2 min 0 min 91 W/m 45,1 km/h (6 Bft) 100,00 %
07.03.2019 17:24 9,1 C 8,9 C 7,8 C 77 % 995,5 hPa 0,0 l/m 0 min 0 min 64 W/m 51,5 km/h (7 Bft) 97,87 %
07.03.2019 17:26 9,1 C 8,3 C 7,8 C 76 % 995,5 hPa 0,0 l/m 0 min 0 min 44 W/m 38,6 km/h (5 Bft) 100,00 %
07.03.2019 17:28 9,0 C 8,3 C 7,8 C 76 % 995,6 hPa 0,0 l/m 0 min 0 min 33 W/m 57,9 km/h (7 Bft) 100,00 %
07.03.2019 17:30 8,9 C 8,3 C 7,8 C 76 % 995,6 hPa 0,0 l/m 0 min 0 min 28 W/m 32,2 km/h (5 Bft) 97,87 %
07.03.2019 17:32 8,9 C 8,3 C 7,8 C 77 % 995,6 hPa 0,0 l/m 0 min 0 min 26 W/m 29,0 km/h (5 Bft) 100,00 %
07.03.2019 17:34 8,9 C 8,3 C 7,8 C 76 % 995,6 hPa 0,0 l/m 0 min 0 min 25 W/m 32,2 km/h (5 Bft) 95,74 %
07.03.2019 17:36 8,9 C 8,3 C 7,8 C 77 % 995,7 hPa 0,0 l/m 0 min 0 min 23 W/m 29,0 km/h (5 Bft) 100,00 %
07.03.2019 17:38 8,9 C 8,3 C 7,8 C 77 % 995,7 hPa 0,0 l/m 0 min 0 min 22 W/m 29,0 km/h (5 Bft) 100,00 %
07.03.2019 17:40 8,8 C 8,3 C 7,8 C 77 % 995,8 hPa 0,0 l/m 0 min 0 min 21 W/m 41,8 km/h (6 Bft) 100,00 %
07.03.2019 17:42 8,8 C 7,8 C 7,2 C 77 % 995,8 hPa 0,0 l/m 0 min 0 min 19 W/m 38,6 km/h (5 Bft) 97,83 %
07.03.2019 17:44 8,7 C 7,8 C 7,2 C 77 % 995,7 hPa 0,0 l/m 0 min 0 min 17 W/m 38,6 km/h (5 Bft) 95,74 %
07.03.2019 17:46 8,7 C 7,8 C 7,2 C 77 % 995,6 hPa 0,0 l/m 0 min 0 min 16 W/m 38,6 km/h (5 Bft) 97,87 %
07.03.2019 17:48 8,7 C 7,8 C 7,2 C 78 % 995,7 hPa 0,0 l/m 0 min 0 min 14 W/m 29,0 km/h (5 Bft) 97,87 %
07.03.2019 17:50 8,6 C 7,8 C 7,2 C 78 % 995,7 hPa 0,0 l/m 0 min 0 min 14 W/m 35,4 km/h (5 Bft) 97,87 %
07.03.2019 17:52 8,6 C 7,8 C 7,2 C 78 % 995,8 hPa 0,0 l/m 0 min 0 min 12 W/m 35,4 km/h (5 Bft) 97,87 %
07.03.2019 17:54 8,5 C 7,8 C 7,2 C 78 % 995,9 hPa 0,0 l/m 0 min 0 min 14 W/m 32,2 km/h (5 Bft) 95,74 %
07.03.2019 17:56 8,5 C 7,8 C 7,2 C 78 % 995,9 hPa 0,0 l/m 0 min 0 min 14 W/m 22,5 km/h (4 Bft) 97,83 %
07.03.2019 17:58 8,4 C 7,8 C 7,2 C 78 % 995,8 hPa 0,0 l/m 0 min 0 min 14 W/m 29,0 km/h (5 Bft) 97,87 %
07.03.2019 18:00 8,4 C 7,8 C 7,2 C 79 % 995,9 hPa 0,0 l/m 0 min 0 min 14 W/m 29,0 km/h (5 Bft) 95,74 %
07.03.2019 18:02 8,4 C 7,8 C 7,2 C 79 % 995,8 hPa 0,0 l/m 0 min 0 min 14 W/m 16,1 km/h (3 Bft) 97,87 %
07.03.2019 18:04 8,4 C 7,8 C 7,2 C 79 % 995,9 hPa 0,0 l/m 0 min 0 min 13 W/m 25,7 km/h (4 Bft) 97,87 %
07.03.2019 18:07 8,3 C 7,8 C 7,2 C 79 % 995,8 hPa 0,0 l/m 0 min 0 min 12 W/m 25,7 km/h (4 Bft) 97,14 %
07.03.2019 18:08 8,3 C 7,8 C 7,2 C 79 % 995,8 hPa 0,0 l/m 0 min 0 min 12 W/m 22,5 km/h (4 Bft) 95,65 %
07.03.2019 18:10 8,3 C 7,8 C 7,2 C 79 % 995,9 hPa 0,0 l/m 0 min 0 min 12 W/m 38,6 km/h (5 Bft) 97,87 %
07.03.2019 18:12 8,3 C 7,8 C 7,2 C 79 % 995,8 hPa 0,0 l/m 0 min 0 min 11 W/m 32,2 km/h (5 Bft) 97,87 %
07.03.2019 18:14 8,3 C 7,8 C 7,2 C 79 % 995,9 hPa 0,0 l/m 0 min 0 min 9 W/m 38,6 km/h (5 Bft) 97,87 %
07.03.2019 18:16 8,3 C 7,8 C 7,2 C 79 % 995,8 hPa 0,0 l/m 0 min 0 min 9 W/m 38,6 km/h (5 Bft) 97,87 %
07.03.2019 18:18 8,3 C 7,8 C 7,2 C 79 % 995,9 hPa 0,0 l/m 0 min 0 min 10 W/m 22,5 km/h (4 Bft) 95,65 %
07.03.2019 18:20 8,3 C 7,8 C 7,2 C 79 % 995,8 hPa 0,0 l/m 0 min 0 min 12 W/m 29,0 km/h (5 Bft) 97,87 %
07.03.2019 18:22 8,3 C 7,8 C 7,2 C 79 % 996,0 hPa 0,0 l/m 0 min 0 min 12 W/m 29,0 km/h (5 Bft) 97,87 %
07.03.2019 18:24 8,3 C 7,8 C 7,2 C 79 % 996,0 hPa 0,0 l/m 0 min 0 min 15 W/m 41,8 km/h (6 Bft) 97,87 %
07.03.2019 18:26 8,3 C 7,8 C 7,2 C 79 % 995,9 hPa 0,0 l/m 0 min 0 min 17 W/m 54,7 km/h (7 Bft) 97,87 %
07.03.2019 18:28 8,4 C 8,3 C 7,8 C 79 % 995,9 hPa 0,0 l/m 0 min 0 min 13 W/m 25,7 km/h (4 Bft) 97,87 %
07.03.2019 18:30 8,4 C 8,3 C 7,8 C 79 % 996,0 hPa 0,0 l/m 0 min 0 min 7 W/m 38,6 km/h (5 Bft) 97,83 %
07.03.2019 18:32 8,5 C 8,3 C 7,8 C 79 % 996,0 hPa 0,0 l/m 0 min 0 min 0 W/m 54,7 km/h (7 Bft) 100,00 %
07.03.2019 18:34 8,6 C 8,3 C 7,8 C 78 % 996,0 hPa 0,0 l/m 0 min 0 min 0 W/m 51,5 km/h (7 Bft) 100,00 %
07.03.2019 18:36 8,6 C 8,3 C 7,8 C 78 % 996,1 hPa 0,0 l/m 0 min 0 min 0 W/m 22,5 km/h (4 Bft) 93,62 %
07.03.2019 18:38 8,7 C 8,3 C 7,8 C 78 % 996,0 hPa 0,0 l/m 0 min 0 min 0 W/m 32,2 km/h (5 Bft) 97,87 %
07.03.2019 18:40 8,7 C 8,3 C 7,8 C 78 % 996,1 hPa 0,0 l/m 0 min 0 min 0 W/m 38,6 km/h (5 Bft) 95,65 %
07.03.2019 18:42 8,7 C 8,3 C 7,8 C 78 % 996,2 hPa 0,0 l/m 0 min 0 min 0 W/m 29,0 km/h (5 Bft) 100,00 %
07.03.2019 18:44 8,7 C 8,3 C 7,8 C 78 % 996,2 hPa 0,0 l/m 0 min 0 min 0 W/m 51,5 km/h (7 Bft) 100,00 %
07.03.2019 18:46 8,7 C 8,3 C 7,8 C 77 % 996,3 hPa 0,0 l/m 0 min 0 min 0 W/m 29,0 km/h (5 Bft) 97,87 %
07.03.2019 18:48 8,7 C 8,3 C 7,8 C 77 % 996,3 hPa 0,0 l/m 0 min 0 min 0 W/m 48,3 km/h (6 Bft) 97,87 %
07.03.2019 18:50 8,7 C 8,3 C 7,8 C 77 % 996,3 hPa 0,0 l/m 0 min 0 min 0 W/m 45,1 km/h (6 Bft) 97,87 %
07.03.2019 18:52 8,8 C 8,3 C 7,8 C 77 % 996,3 hPa 0,0 l/m 0 min 0 min 0 W/m 41,8 km/h (6 Bft) 100,00 %
07.03.2019 18:54 8,8 C 8,3 C 7,2 C 77 % 996,3 hPa 0,0 l/m 0 min 0 min 0 W/m 32,2 km/h (5 Bft) 97,87 %
07.03.2019 18:56 8,8 C 7,8 C 7,8 C 77 % 996,3 hPa 0,0 l/m 0 min 0 min 0 W/m 29,0 km/h (5 Bft) 95,74 %
07.03.2019 18:58 8,8 C 7,8 C 7,2 C 77 % 996,3 hPa 0,0 l/m 0 min 0 min 0 W/m 29,0 km/h (5 Bft) 97,87 %
07.03.2019 19:00 8,7 C 7,8 C 7,2 C 78 % 996,4 hPa 0,0 l/m 0 min 0 min 0 W/m 32,2 km/h (5 Bft) 97,87 %
07.03.2019 19:02 8,7 C 7,8 C 7,2 C 78 % 996,5 hPa 0,0 l/m 0 min 0 min 0 W/m 54,7 km/h (7 Bft) 93,62 %
07.03.2019 19:04 8,7 C 7,8 C 7,2 C 77 % 996,4 hPa 0,0 l/m 0 min 0 min 0 W/m 32,2 km/h (5 Bft) 97,83 %
07.03.2019 19:06 8,7 C 7,8 C 7,2 C 78 % 996,7 hPa 0,0 l/m 0 min 0 min 0 W/m 32,2 km/h (5 Bft) 97,87 %
07.03.2019 19:08 8,7 C 7,8 C 7,2 C 77 % 996,5 hPa 0,0 l/m 0 min 0 min 0 W/m 29,0 km/h (5 Bft) 97,87 %
07.03.2019 19:10 8,7 C 7,8 C 7,2 C 78 % 996,5 hPa 0,0 l/m 0 min 0 min 0 W/m 41,8 km/h (6 Bft) 97,87 %
07.03.2019 19:12 8,7 C 7,8 C 7,2 C 78 % 996,5 hPa 0,0 l/m 0 min 0 min 0 W/m 35,4 km/h (5 Bft) 97,87 %
07.03.2019 19:14 8,7 C 7,8 C 7,2 C 77 % 996,5 hPa 0,0 l/m 0 min 0 min 0 W/m 32,2 km/h (5 Bft) 95,74 %
07.03.2019 19:16 8,7 C 7,8 C 7,2 C 78 % 996,5 hPa 0,0 l/m 0 min 0 min 0 W/m 25,7 km/h (4 Bft) 97,83 %
07.03.2019 19:18 8,6 C 7,8 C 7,2 C 78 % 996,5 hPa 0,0 l/m 0 min 0 min 0 W/m 54,7 km/h (7 Bft) 95,74 %
07.03.2019 19:20 8,6 C 7,8 C 7,2 C 77 % 996,6 hPa 0,0 l/m 0 min 0 min 0 W/m 51,5 km/h (7 Bft) 97,87 %
07.03.2019 19:22 8,6 C 7,8 C 7,2 C 77 % 996,5 hPa 0,0 l/m 0 min 0 min 0 W/m 41,8 km/h (6 Bft) 97,87 %
07.03.2019 19:24 8,6 C 7,8 C 7,8 C 76 % 996,5 hPa 0,0 l/m 0 min 0 min 0 W/m 57,9 km/h (7 Bft) 97,87 %
07.03.2019 19:26 8,6 C 7,8 C 7,2 C 76 % 996,5 hPa 0,0 l/m 0 min 0 min 0 W/m 35,4 km/h (5 Bft) 97,87 %
07.03.2019 19:28 8,6 C 7,8 C 7,2 C 76 % 996,5 hPa 0,0 l/m 0 min 0 min 0 W/m 51,5 km/h (7 Bft) 97,83 %
07.03.2019 19:30 8,6 C 7,8 C 7,2 C 76 % 996,5 hPa 0,0 l/m 0 min 0 min 0 W/m 41,8 km/h (6 Bft) 97,87 %
07.03.2019 19:32 8,6 C 7,8 C 7,2 C 76 % 996,5 hPa 0,0 l/m 0 min 0 min 0 W/m 41,8 km/h (6 Bft) 97,87 %
07.03.2019 19:34 8,6 C 7,8 C 7,2 C 76 % 996,5 hPa 0,0 l/m 0 min 0 min 0 W/m 32,2 km/h (5 Bft) 97,87 %
07.03.2019 19:36 8,6 C 7,8 C 7,2 C 76 % 996,6 hPa 0,0 l/m 0 min 0 min 0 W/m 70,8 km/h (8 Bft) 97,87 %
07.03.2019 19:38 8,6 C 7,8 C 7,2 C 76 % 996,7 hPa 0,0 l/m 0 min 0 min 0 W/m 32,2 km/h (5 Bft) 97,92 %
07.03.2019 19:40 8,6 C 7,8 C 7,2 C 76 % 996,6 hPa 0,0 l/m 0 min 0 min 0 W/m 54,7 km/h (7 Bft) 97,83 %
07.03.2019 19:42 8,5 C 7,8 C 7,2 C 76 % 996,7 hPa 0,0 l/m 0 min 0 min 0 W/m 41,8 km/h (6 Bft) 95,74 %
07.03.2019 19:44 8,5 C 7,8 C 7,2 C 76 % 996,7 hPa 0,0 l/m 0 min 0 min 0 W/m 29,0 km/h (5 Bft) 100,00 %
07.03.2019 19:46 8,5 C 7,8 C 7,2 C 77 % 996,8 hPa 0,0 l/m 0 min 0 min 0 W/m 35,4 km/h (5 Bft) 100,00 %
07.03.2019 19:48 8,4 C 7,8 C 7,2 C 77 % 996,7 hPa 0,0 l/m 0 min 0 min 0 W/m 41,8 km/h (6 Bft) 100,00 %
07.03.2019 19:50 8,4 C 7,8 C 7,2 C 77 % 996,9 hPa 0,0 l/m 0 min 0 min 0 W/m 32,2 km/h (5 Bft) 97,87 %
07.03.2019 19:52 8,4 C 7,8 C 7,2 C 77 % 996,8 hPa 0,0 l/m 0 min 0 min 0 W/m 35,4 km/h (5 Bft) 100,00 %
07.03.2019 19:54 8,4 C 7,8 C 7,2 C 77 % 996,8 hPa 0,0 l/m 0 min 0 min 0 W/m 35,4 km/h (5 Bft) 95,74 %
07.03.2019 19:56 8,4 C 7,8 C 7,2 C 77 % 996,7 hPa 0,0 l/m 0 min 0 min 0 W/m 22,5 km/h (4 Bft) 97,87 %
07.03.2019 19:58 8,4 C 7,8 C 7,2 C 77 % 996,9 hPa 0,0 l/m 0 min 0 min 0 W/m 25,7 km/h (4 Bft) 97,87 %
07.03.2019 20:00 8,3 C 7,8 C 7,2 C 77 % 997,0 hPa 0,0 l/m 0 min 0 min 0 W/m 38,6 km/h (5 Bft) 97,87 %
07.03.2019 20:02 8,3 C 7,8 C 7,2 C 77 % 997,0 hPa 0,0 l/m 0 min 0 min 0 W/m 32,2 km/h (5 Bft) 97,83 %
07.03.2019 20:04 8,3 C 7,8 C 7,2 C 77 % 997,0 hPa 0,0 l/m 0 min 0 min 0 W/m 25,7 km/h (4 Bft) 97,87 %
07.03.2019 20:06 8,3 C 7,8 C 7,2 C 77 % 997,0 hPa 0,0 l/m 0 min 0 min 0 W/m 32,2 km/h (5 Bft) 100,00 %
07.03.2019 20:08 8,3 C 7,8 C 7,2 C 77 % 997,0 hPa 0,0 l/m 0 min 0 min 0 W/m 38,6 km/h (5 Bft) 97,87 %
07.03.2019 20:10 8,3 C 7,8 C 7,2 C 77 % 997,1 hPa 0,0 l/m 0 min 0 min 0 W/m 38,6 km/h (5 Bft) 97,87 %
07.03.2019 20:12 8,3 C 7,8 C 7,2 C 77 % 997,0 hPa 0,0 l/m 0 min 0 min 0 W/m 35,4 km/h (5 Bft) 97,87 %
07.03.2019 20:14 8,3 C 7,8 C 7,2 C 77 % 997,0 hPa 0,0 l/m 0 min 0 min 0 W/m 41,8 km/h (6 Bft) 97,83 %
07.03.2019 20:16 8,3 C 7,8 C 7,2 C 77 % 997,2 hPa 0,0 l/m 0 min 0 min 0 W/m 45,1 km/h (6 Bft) 97,87 %
07.03.2019 20:18 8,3 C 7,8 C 7,2 C 77 % 997,0 hPa 0,0 l/m 0 min 0 min 0 W/m 29,0 km/h (5 Bft) 97,87 %
07.03.2019 20:20 8,3 C 7,8 C 7,2 C 77 % 997,1 hPa 0,0 l/m 0 min 0 min 0 W/m 22,5 km/h (4 Bft) 97,87 %
07.03.2019 20:22 8,2 C 7,8 C 7,2 C 77 % 997,1 hPa 0,0 l/m 0 min 0 min 0 W/m 29,0 km/h (5 Bft) 95,74 %
07.03.2019 20:24 8,2 C 7,2 C 6,7 C 77 % 997,2 hPa 0,0 l/m 0 min 0 min 0 W/m 48,3 km/h (6 Bft) 95,74 %
07.03.2019 20:26 8,2 C 7,8 C 7,2 C 77 % 997,1 hPa 0,0 l/m 0 min 0 min 0 W/m 38,6 km/h (5 Bft) 97,83 %
07.03.2019 20:28 8,2 C 7,2 C 6,7 C 77 % 997,0 hPa 0,0 l/m 0 min 0 min 0 W/m 38,6 km/h (5 Bft) 97,87 %
07.03.2019 20:30 8,2 C 7,8 C 7,2 C 77 % 997,1 hPa 0,0 l/m 0 min 0 min 0 W/m 38,6 km/h (5 Bft) 97,87 %
07.03.2019 20:32 8,2 C 7,8 C 7,2 C 77 % 997,1 hPa 0,0 l/m 0 min 0 min 0 W/m 48,3 km/h (6 Bft) 95,74 %
07.03.2019 20:34 8,2 C 7,2 C 7,2 C 77 % 997,2 hPa 0,0 l/m 0 min 0 min 0 W/m 32,2 km/h (5 Bft) 95,74 %
07.03.2019 20:36 8,2 C 7,8 C 7,2 C 77 % 997,1 hPa 0,0 l/m 0 min 0 min 0 W/m 35,4 km/h (5 Bft) 93,62 %
07.03.2019 20:38 8,2 C 7,2 C 6,7 C 77 % 997,1 hPa 0,0 l/m 0 min 0 min 0 W/m 29,0 km/h (5 Bft) 93,62 %
07.03.2019 20:40 8,2 C 7,2 C 6,7 C 77 % 997,1 hPa 0,0 l/m 0 min 0 min 0 W/m 25,7 km/h (4 Bft) 95,74 %
07.03.2019 20:42 8,2 C 7,2 C 6,7 C 77 % 997,1 hPa 0,0 l/m 0 min 0 min 0 W/m 41,8 km/h (6 Bft) 95,74 %
07.03.2019 20:44 8,2 C 7,8 C 7,2 C 77 % 997,1 hPa 0,0 l/m 0 min 0 min 0 W/m 35,4 km/h (5 Bft) 95,74 %
07.03.2019 20:46 8,2 C 7,2 C 6,7 C 77 % 997,2 hPa 0,0 l/m 0 min 0 min 0 W/m 32,2 km/h (5 Bft) 95,74 %
07.03.2019 20:48 8,1 C 7,2 C 6,7 C 78 % 997,2 hPa 0,0 l/m 0 min 0 min 0 W/m 22,5 km/h (4 Bft) 95,74 %
07.03.2019 20:50 8,1 C 7,2 C 6,7 C 78 % 997,3 hPa 0,0 l/m 0 min 0 min 0 W/m 29,0 km/h (5 Bft) 95,65 %
07.03.2019 20:52 8,1 C 7,2 C 6,7 C 78 % 997,3 hPa 0,0 l/m 0 min 0 min 0 W/m 45,1 km/h (6 Bft) 93,62 %
07.03.2019 20:54 8,1 C 7,2 C 6,7 C 78 % 997,3 hPa 0,0 l/m 0 min 0 min 0 W/m 25,7 km/h (4 Bft) 93,62 %
07.03.2019 20:56 8,1 C 7,2 C 6,7 C 78 % 997,4 hPa 0,0 l/m 0 min 0 min 0 W/m 25,7 km/h (4 Bft) 97,87 %
07.03.2019 20:58 8,1 C 7,2 C 6,7 C 78 % 997,3 hPa 0,0 l/m 0 min 0 min 0 W/m 22,5 km/h (4 Bft) 93,62 %
07.03.2019 21:00 8,1 C 7,2 C 6,7 C 78 % 997,3 hPa 0,0 l/m 0 min 0 min 0 W/m 29,0 km/h (5 Bft) 97,83 %
07.03.2019 21:02 8,1 C 7,2 C 6,7 C 78 % 997,3 hPa 0,0 l/m 0 min 0 min 0 W/m 19,3 km/h (3 Bft) 95,74 %
07.03.2019 21:04 8,0 C 7,2 C 6,7 C 78 % 997,3 hPa 0,0 l/m 0 min 0 min 0 W/m 19,3 km/h (3 Bft) 97,87 %
07.03.2019 21:06 8,0 C 7,2 C 6,7 C 78 % 997,3 hPa 0,0 l/m 0 min 0 min 0 W/m 19,3 km/h (3 Bft) 97,87 %
07.03.2019 21:08 8,0 C 7,2 C 6,7 C 78 % 997,3 hPa 0,0 l/m 0 min 0 min 0 W/m 12,9 km/h (3 Bft) 95,74 %
07.03.2019 21:10 8,0 C 7,2 C 6,7 C 78 % 997,3 hPa 0,0 l/m 0 min 0 min 0 W/m 25,7 km/h (4 Bft) 95,74 %
07.03.2019 21:12 7,9 C 7,2 C 6,7 C 78 % 997,2 hPa 0,0 l/m 0 min 0 min 0 W/m 25,7 km/h (4 Bft) 95,65 %
07.03.2019 21:14 7,9 C 7,2 C 6,7 C 78 % 997,2 hPa 0,0 l/m 0 min 0 min 0 W/m 29,0 km/h (5 Bft) 95,74 %
07.03.2019 21:16 7,9 C 7,2 C 6,7 C 78 % 997,3 hPa 0,0 l/m 0 min 0 min 0 W/m 25,7 km/h (4 Bft) 93,62 %
07.03.2019 21:18 7,9 C 7,2 C 6,7 C 78 % 997,3 hPa 0,0 l/m 0 min 0 min 0 W/m 35,4 km/h (5 Bft) 93,62 %
07.03.2019 21:20 7,9 C 7,2 C 6,7 C 78 % 997,3 hPa 0,0 l/m 0 min 0 min 0 W/m 29,0 km/h (5 Bft) 100,00 %
07.03.2019 21:22 7,9 C 7,2 C 6,7 C 78 % 997,4 hPa 0,0 l/m 0 min 0 min 0 W/m 35,4 km/h (5 Bft) 97,87 %
07.03.2019 21:24 7,9 C 7,2 C 6,7 C 78 % 997,4 hPa 0,0 l/m 0 min 0 min 0 W/m 41,8 km/h (6 Bft) 95,65 %
07.03.2019 21:26 7,9 C 7,2 C 6,7 C 77 % 997,4 hPa 0,0 l/m 0 min 0 min 0 W/m 35,4 km/h (5 Bft) 95,74 %
07.03.2019 21:28 7,9 C 7,2 C 6,7 C 77 % 997,5 hPa 0,0 l/m 0 min 0 min 0 W/m 29,0 km/h (5 Bft) 100,00 %
07.03.2019 21:30 7,9 C 7,2 C 6,7 C 78 % 997,5 hPa 0,0 l/m 0 min 0 min 0 W/m 29,0 km/h (5 Bft) 95,74 %
07.03.2019 21:32 7,9 C 7,2 C 6,7 C 78 % 997,4 hPa 0,0 l/m 0 min 0 min 0 W/m 19,3 km/h (3 Bft) 97,87 %
07.03.2019 21:34 7,9 C 7,2 C 6,7 C 78 % 997,5 hPa 0,0 l/m 0 min 0 min 0 W/m 35,4 km/h (5 Bft) 97,87 %
07.03.2019 21:36 7,9 C 7,2 C 6,7 C 78 % 997,7 hPa 0,0 l/m 0 min 0 min 0 W/m 29,0 km/h (5 Bft) 95,65 %
07.03.2019 21:38 8,0 C 7,8 C 6,7 C 78 % 997,6 hPa 0,0 l/m 0 min 0 min 0 W/m 22,5 km/h (4 Bft) 97,87 %
07.03.2019 21:40 8,0 C 7,8 C 7,2 C 78 % 997,6 hPa 0,0 l/m 0 min 0 min 0 W/m 25,7 km/h (4 Bft) 97,87 %
07.03.2019 21:42 8,0 C 7,8 C 7,2 C 78 % 997,7 hPa 0,0 l/m 0 min 0 min 0 W/m 32,2 km/h (5 Bft) 97,87 %
07.03.2019 21:44 8,1 C 7,8 C 7,2 C 78 % 997,7 hPa 0,0 l/m 0 min 0 min 0 W/m 48,3 km/h (6 Bft) 97,87 %
07.03.2019 21:46 8,1 C 7,8 C 7,2 C 78 % 997,6 hPa 0,0 l/m 0 min 0 min 0 W/m 35,4 km/h (5 Bft) 97,87 %
07.03.2019 21:48 8,1 C 7,8 C 7,2 C 77 % 998,0 hPa 0,0 l/m 0 min 0 min 0 W/m 35,4 km/h (5 Bft) 95,65 %
07.03.2019 21:50 8,2 C 7,8 C 7,2 C 77 % 997,5 hPa 0,0 l/m 0 min 0 min 0 W/m 54,7 km/h (7 Bft) 95,74 %
07.03.2019 21:52 8,2 C 7,8 C 7,2 C 77 % 997,5 hPa 0,0 l/m 0 min 0 min 0 W/m 29,0 km/h (5 Bft) 95,74 %
07.03.2019 21:54 8,2 C 7,8 C 7,2 C 77 % 997,6 hPa 0,0 l/m 0 min 0 min 0 W/m 41,8 km/h (6 Bft) 97,87 %
07.03.2019 21:56 8,2 C 7,8 C 7,2 C 76 % 997,6 hPa 0,0 l/m 0 min 0 min 0 W/m 45,1 km/h (6 Bft) 97,87 %
07.03.2019 21:58 8,3 C 7,8 C 7,2 C 76 % 997,5 hPa 0,0 l/m 0 min 0 min 0 W/m 32,2 km/h (5 Bft) 97,87 %
07.03.2019 22:00 8,3 C 7,8 C 7,2 C 76 % 997,6 hPa 0,0 l/m 0 min 0 min 0 W/m 29,0 km/h (5 Bft) 95,65 %
07.03.2019 22:02 8,3 C 7,8 C 7,2 C 76 % 997,5 hPa 0,0 l/m 0 min 0 min 0 W/m 48,3 km/h (6 Bft) 97,87 %
07.03.2019 22:04 8,3 C 7,8 C 7,2 C 76 % 997,5 hPa 0,0 l/m 0 min 0 min 0 W/m 54,7 km/h (7 Bft) 97,87 %
07.03.2019 22:06 8,3 C 7,8 C 7,2 C 76 % 997,5 hPa 0,0 l/m 0 min 0 min 0 W/m 41,8 km/h (6 Bft) 97,87 %
07.03.2019 22:08 8,3 C 7,8 C 7,2 C 76 % 997,5 hPa 0,0 l/m 0 min 0 min 0 W/m 29,0 km/h (5 Bft) 97,87 %
07.03.2019 22:10 8,3 C 7,8 C 7,2 C 76 % 997,5 hPa 0,0 l/m 0 min 0 min 0 W/m 41,8 km/h (6 Bft) 97,83 %
07.03.2019 22:12 8,3 C 7,2 C 6,7 C 76 % 997,8 hPa 0,0 l/m 0 min 0 min 0 W/m 45,1 km/h (6 Bft) 97,87 %
07.03.2019 22:14 8,2 C 7,2 C 6,7 C 76 % 997,5 hPa 0,0 l/m 0 min 0 min 0 W/m 51,5 km/h (7 Bft) 97,87 %
07.03.2019 22:16 8,2 C 7,2 C 6,7 C 76 % 997,5 hPa 0,0 l/m 0 min 0 min 0 W/m 35,4 km/h (5 Bft) 97,87 %
07.03.2019 22:18 8,2 C 7,2 C 6,7 C 76 % 997,5 hPa 0,0 l/m 0 min 0 min 0 W/m 48,3 km/h (6 Bft) 100,00 %
07.03.2019 22:20 8,2 C 7,2 C 6,7 C 76 % 997,6 hPa 0,0 l/m 0 min 0 min 0 W/m 29,0 km/h (5 Bft) 100,00 %
07.03.2019 22:22 8,2 C 7,2 C 6,7 C 76 % 997,5 hPa 0,0 l/m 0 min 0 min 0 W/m 35,4 km/h (5 Bft) 100,00 %
07.03.2019 22:24 8,2 C 7,2 C 6,7 C 76 % 997,5 hPa 0,0 l/m 0 min 0 min 0 W/m 35,4 km/h (5 Bft) 100,00 %
07.03.2019 22:26 8,1 C 7,2 C 6,7 C 76 % 997,5 hPa 0,0 l/m 0 min 0 min 0 W/m 32,2 km/h (5 Bft) 100,00 %
07.03.2019 22:28 8,1 C 7,2 C 6,7 C 76 % 997,5 hPa 0,0 l/m 0 min 0 min 0 W/m 54,7 km/h (7 Bft) 100,00 %
07.03.2019 22:30 8,1 C 7,2 C 6,7 C 76 % 997,5 hPa 0,0 l/m 0 min 0 min 0 W/m 41,8 km/h (6 Bft) 100,00 %
07.03.2019 22:32 8,1 C 7,2 C 6,7 C 76 % 997,5 hPa 0,0 l/m 0 min 0 min 0 W/m 32,2 km/h (5 Bft) 100,00 %
07.03.2019 22:34 8,1 C 7,2 C 6,7 C 76 % 997,5 hPa 0,0 l/m 0 min 0 min 0 W/m 51,5 km/h (7 Bft) 97,83 %
07.03.2019 22:36 8,1 C 7,2 C 6,7 C 76 % 997,5 hPa 0,0 l/m 0 min 0 min 0 W/m 38,6 km/h (5 Bft) 100,00 %
07.03.2019 22:38 8,1 C 7,2 C 6,7 C 76 % 997,6 hPa 0,0 l/m 0 min 0 min 0 W/m 35,4 km/h (5 Bft) 100,00 %
07.03.2019 22:40 8,1 C 7,2 C 6,7 C 76 % 997,5 hPa 0,0 l/m 0 min 0 min 0 W/m 22,5 km/h (4 Bft) 100,00 %
07.03.2019 22:42 8,1 C 7,8 C 7,2 C 76 % 997,9 hPa 0,0 l/m 0 min 0 min 0 W/m 45,1 km/h (6 Bft) 100,00 %
07.03.2019 22:44 8,1 C 7,8 C 7,2 C 76 % 997,8 hPa 0,0 l/m 0 min 0 min 0 W/m 54,7 km/h (7 Bft) 100,00 %
07.03.2019 22:46 8,1 C 7,8 C 7,2 C 76 % 997,7 hPa 0,0 l/m 0 min 0 min 0 W/m 38,6 km/h (5 Bft) 100,00 %
07.03.2019 22:48 8,1 C 7,8 C 7,2 C 76 % 997,7 hPa 0,0 l/m 0 min 0 min 0 W/m 29,0 km/h (5 Bft) 100,00 %
07.03.2019 22:50 8,1 C 7,8 C 7,2 C 76 % 997,7 hPa 0,0 l/m 0 min 0 min 0 W/m 32,2 km/h (5 Bft) 100,00 %
07.03.2019 22:52 8,2 C 7,8 C 7,2 C 76 % 997,6 hPa 0,0 l/m 0 min 0 min 0 W/m 51,5 km/h (7 Bft) 100,00 %
07.03.2019 22:54 8,2 C 7,8 C 7,2 C 76 % 997,6 hPa 0,0 l/m 0 min 0 min 0 W/m 35,4 km/h (5 Bft) 100,00 %
07.03.2019 22:56 8,2 C 7,8 C 7,2 C 76 % 997,6 hPa 0,0 l/m 0 min 0 min 0 W/m 38,6 km/h (5 Bft) 100,00 %
07.03.2019 22:58 8,2 C 7,8 C 7,2 C 76 % 997,7 hPa 0,0 l/m 0 min 0 min 0 W/m 35,4 km/h (5 Bft) 100,00 %
07.03.2019 23:00 8,2 C 7,8 C 7,2 C 76 % 997,7 hPa 0,0 l/m 0 min 0 min 0 W/m 38,6 km/h (5 Bft) 100,00 %
07.03.2019 23:02 8,2 C 7,8 C 7,2 C 76 % 997,8 hPa 0,0 l/m 0 min 0 min 0 W/m 45,1 km/h (6 Bft) 100,00 %
07.03.2019 23:04 8,2 C 7,8 C 7,2 C 76 % 997,8 hPa 0,0 l/m 0 min 0 min 0 W/m 41,8 km/h (6 Bft) 100,00 %
07.03.2019 23:06 8,2 C 7,8 C 7,2 C 75 % 997,8 hPa 0,0 l/m 0 min 0 min 0 W/m 48,3 km/h (6 Bft) 100,00 %
07.03.2019 23:08 8,2 C 7,8 C 7,2 C 75 % 997,8 hPa 0,0 l/m 0 min 0 min 0 W/m 35,4 km/h (5 Bft) 100,00 %
07.03.2019 23:10 8,3 C 7,8 C 7,2 C 75 % 997,9 hPa 0,0 l/m 0 min 0 min 0 W/m 41,8 km/h (6 Bft) 100,00 %
07.03.2019 23:12 8,3 C 7,8 C 7,2 C 75 % 997,8 hPa 0,0 l/m 0 min 0 min 0 W/m 38,6 km/h (5 Bft) 100,00 %
07.03.2019 23:14 8,3 C 7,8 C 7,2 C 75 % 997,9 hPa 0,0 l/m 0 min 0 min 0 W/m 32,2 km/h (5 Bft) 100,00 %
07.03.2019 23:16 8,3 C 7,8 C 7,2 C 75 % 997,8 hPa 0,0 l/m 0 min 0 min 0 W/m 19,3 km/h (3 Bft) 100,00 %
07.03.2019 23:18 8,3 C 7,8 C 7,2 C 75 % 997,9 hPa 0,0 l/m 0 min 2 min 0 W/m 51,5 km/h (7 Bft) 97,87 %
07.03.2019 23:20 8,3 C 7,8 C 7,2 C 75 % 998,0 hPa 0,0 l/m 0 min 0 min 0 W/m 38,6 km/h (5 Bft) 97,83 %
07.03.2019 23:22 8,3 C 7,8 C 7,2 C 75 % 997,8 hPa 0,0 l/m 0 min 0 min 0 W/m 35,4 km/h (5 Bft) 97,87 %
07.03.2019 23:24 8,3 C 7,8 C 7,2 C 75 % 997,9 hPa 0,0 l/m 0 min 0 min 0 W/m 29,0 km/h (5 Bft) 95,74 %
07.03.2019 23:26 8,3 C 7,8 C 7,2 C 75 % 997,9 hPa 0,0 l/m 0 min 0 min 0 W/m 22,5 km/h (4 Bft) 97,87 %
07.03.2019 23:28 8,3 C 7,8 C 7,2 C 76 % 997,8 hPa 0,0 l/m 0 min 0 min 0 W/m 29,0 km/h (5 Bft) 95,74 %
07.03.2019 23:30 8,3 C 7,8 C 7,2 C 76 % 998,4 hPa 0,0 l/m 0 min 0 min 0 W/m 45,1 km/h (6 Bft) 95,74 %
07.03.2019 23:32 8,3 C 7,8 C 7,2 C 76 % 997,8 hPa 0,0 l/m 0 min 0 min 0 W/m 25,7 km/h (4 Bft) 97,83 %
07.03.2019 23:34 8,3 C 7,8 C 7,2 C 76 % 998,0 hPa 0,0 l/m 0 min 0 min 0 W/m 41,8 km/h (6 Bft) 95,74 %
07.03.2019 23:36 8,3 C 7,8 C 7,2 C 76 % 998,0 hPa 0,0 l/m 0 min 0 min 0 W/m 38,6 km/h (5 Bft) 95,74 %
07.03.2019 23:38 8,3 C 7,8 C 7,2 C 76 % 997,8 hPa 0,0 l/m 0 min 0 min 0 W/m 25,7 km/h (4 Bft) 95,92 %
07.03.2019 23:40 8,3 C 7,8 C 7,2 C 76 % 997,9 hPa 0,0 l/m 0 min 0 min 0 W/m 25,7 km/h (4 Bft) 95,74 %
07.03.2019 23:42 8,3 C 7,8 C 7,2 C 76 % 998,3 hPa 0,0 l/m 0 min 0 min 0 W/m 45,1 km/h (6 Bft) 95,74 %
07.03.2019 23:44 8,3 C 7,8 C 7,2 C 76 % 998,0 hPa 0,0 l/m 0 min 0 min 0 W/m 32,2 km/h (5 Bft) 93,62 %
07.03.2019 23:46 8,3 C 7,8 C 7,2 C 76 % 998,0 hPa 0,0 l/m 0 min 0 min 0 W/m 29,0 km/h (5 Bft) 93,48 %
07.03.2019 23:48 8,3 C 7,8 C 7,2 C 76 % 998,1 hPa 0,0 l/m 0 min 0 min 0 W/m 35,4 km/h (5 Bft) 93,62 %
07.03.2019 23:50 8,3 C 7,8 C 7,2 C 76 % 998,0 hPa 0,0 l/m 0 min 0 min 0 W/m 45,1 km/h (6 Bft) 95,74 %
07.03.2019 23:52 8,3 C 7,8 C 7,2 C 76 % 998,1 hPa 0,0 l/m 0 min 0 min 0 W/m 25,7 km/h (4 Bft) 95,74 %
07.03.2019 23:54 8,3 C 7,8 C 7,2 C 76 % 998,1 hPa 0,0 l/m 0 min 0 min 0 W/m 25,7 km/h (4 Bft) 91,49 %
07.03.2019 23:56 8,3 C 7,8 C 7,2 C 77 % 998,2 hPa 0,0 l/m 0 min 2 min 0 W/m 25,7 km/h (4 Bft) 95,74 %
07.03.2019 23:58 8,3 C 7,2 C 6,7 C 77 % 998,1 hPa 0,0 l/m 0 min 2 min 0 W/m 19,3 km/h (3 Bft) 93,48 %
_ Min-Zeit 08:56 07:42 08:36 13:40 05:26 - - - - 01:38 04:02
Minimum _ 7,7 C 6,1 C 5,6 C 68 % 984,9 hPa - - - - 6,4 km/h (2 Bft) 86,67 %
_ Max-Zeit 13:34 12:56 12:56 03:12 23:30 07:10 09:04 06:08 13:08 15:20 00:48
Maximum _ 11,8 C 15,6 C 15,6 C 94 % 998,4 hPa 0,8 l/m 2 min 4 min 765 W/m 83,7 km/h
W (9 Bft)
100,00 %
Durchschnitt _ 9,5 C 9,1 C 8,2 C 83 % 992,7 hPa #3,8 l/m #4:20 h #7:36 h 218 W/m 31,8 km/h (5 Bft) 97,38 %
© 2019 W. Hausmann